Wetterdaten: Montag, 18.07.2016
Datum Zeit Temp. A. Feuchte A. Luftdruck Regen Wind Richtung Richtung Sonnenschein ET UV Solar Taupunkt Windchill Windben Empfang
18.07.2016 00:00 16,6 C 95 % 1020,4 hPa 0,0 l/m 6,2 km/h (2 Bft) N 5 0 min 0,000 mm 0,0 UV-I 0 W/m 15,8 C 16,6 C 9,7 km/h (2 Bft) 100,00 %
18.07.2016 00:02 16,5 C 95 % 1020,3 hPa 0,2 l/m 6,3 km/h (2 Bft) NO 37 0 min 0,000 mm 0,0 UV-I 0 W/m 15,7 C 16,5 C 8,0 km/h (2 Bft) 97,37 %
18.07.2016 00:04 16,5 C 95 % 1020,2 hPa 0,2 l/m 4,6 km/h (1 Bft) NO 37 0 min 0,000 mm 0,0 UV-I 0 W/m 15,7 C 16,5 C 8,0 km/h (2 Bft) 100,00 %
18.07.2016 00:06 16,5 C 95 % 1020,1 hPa 0,0 l/m 3,1 km/h (1 Bft) NO 38 0 min 0,000 mm 0,0 UV-I 0 W/m 15,7 C 16,5 C 4,8 km/h (1 Bft) 100,00 %
18.07.2016 00:08 16,5 C 95 % 1020,1 hPa 0,2 l/m 2,1 km/h (1 Bft) NO 38 0 min 0,000 mm 0,0 UV-I 0 W/m 15,7 C 16,5 C 4,8 km/h (1 Bft) 100,00 %
18.07.2016 00:10 16,5 C 95 % 1020,0 hPa 0,0 l/m 3,0 km/h (1 Bft) NO 39 0 min 0,000 mm 0,0 UV-I 0 W/m 15,7 C 16,5 C 4,8 km/h (1 Bft) 100,00 %
18.07.2016 00:12 16,5 C 95 % 1020,0 hPa 0,2 l/m 3,4 km/h (1 Bft) O-NO 69 0 min 0,000 mm 0,0 UV-I 0 W/m 15,7 C 16,5 C 4,8 km/h (1 Bft) 100,00 %
18.07.2016 00:14 16,4 C 95 % 1019,9 hPa 0,0 l/m 4,1 km/h (1 Bft) O 81 0 min 0,000 mm 0,0 UV-I 0 W/m 15,6 C 16,4 C 4,8 km/h (1 Bft) 100,00 %
18.07.2016 00:16 16,4 C 95 % 1019,9 hPa 0,0 l/m 4,2 km/h (1 Bft) O-SO 109 0 min 0,000 mm 0,0 UV-I 0 W/m 15,6 C 16,4 C 6,4 km/h (2 Bft) 95,74 %
18.07.2016 00:18 16,4 C 95 % 1019,9 hPa 0,0 l/m 0,4 km/h (0 Bft) O-SO 109 0 min 0,000 mm 0,0 UV-I 0 W/m 15,6 C 16,4 C 1,6 km/h (1 Bft) 97,87 %
18.07.2016 00:20 16,4 C 95 % 1020,0 hPa 0,2 l/m 0,0 km/h (0 Bft) O-SO 109 0 min 0,000 mm 0,0 UV-I 0 W/m 15,6 C 16,4 C 0,0 km/h (0 Bft) 100,00 %
18.07.2016 00:22 16,4 C 95 % 1020,0 hPa 0,0 l/m 0,0 km/h (0 Bft) O-SO 109 0 min 0,000 mm 0,0 UV-I 0 W/m 15,6 C 16,4 C 0,0 km/h (0 Bft) 100,00 %
18.07.2016 00:24 16,4 C 95 % 1020,0 hPa 0,0 l/m 0,5 km/h (0 Bft) O-SO 106 0 min 0,000 mm 0,0 UV-I 0 W/m 15,6 C 16,4 C 3,2 km/h (1 Bft) 100,00 %
18.07.2016 00:26 16,3 C 95 % 1020,1 hPa 0,0 l/m 2,1 km/h (1 Bft) N-NO 16 0 min 0,000 mm 0,0 UV-I 0 W/m 15,5 C 16,3 C 3,2 km/h (1 Bft) 97,87 %
18.07.2016 00:28 16,3 C 95 % 1020,1 hPa 0,4 l/m 1,5 km/h (1 Bft) N-NO 16 0 min 0,000 mm 0,0 UV-I 0 W/m 15,5 C 16,3 C 3,2 km/h (1 Bft) 100,00 %
18.07.2016 00:30 16,3 C 96 % 1020,1 hPa 0,4 l/m 0,1 km/h (0 Bft) N-NO 16 0 min 0,000 mm 0,0 UV-I 0 W/m 15,7 C 16,3 C 1,6 km/h (1 Bft) 97,87 %
18.07.2016 00:32 16,3 C 96 % 1019,8 hPa 1,2 l/m 3,1 km/h (1 Bft) O-SO 112 0 min 0,000 mm 0,0 UV-I 0 W/m 15,7 C 16,3 C 6,4 km/h (2 Bft) 100,00 %
18.07.2016 00:34 16,3 C 96 % 1019,7 hPa 0,4 l/m 7,0 km/h (2 Bft) O 94 0 min 0,000 mm 0,0 UV-I 0 W/m 15,7 C 16,0 C 9,7 km/h (2 Bft) 100,00 %
18.07.2016 00:36 16,3 C 96 % 1019,8 hPa 0,0 l/m 2,4 km/h (1 Bft) O 94 0 min 0,000 mm 0,0 UV-I 0 W/m 15,7 C 16,3 C 4,8 km/h (1 Bft) 100,00 %
18.07.2016 00:38 16,3 C 96 % 1019,9 hPa 0,0 l/m 1,4 km/h (1 Bft) NO 49 0 min 0,000 mm 0,0 UV-I 0 W/m 15,7 C 16,3 C 3,2 km/h (1 Bft) 100,00 %
18.07.2016 00:40 16,3 C 96 % 1019,9 hPa 0,2 l/m 2,0 km/h (1 Bft) N 11 0 min 0,000 mm 0,0 UV-I 0 W/m 15,7 C 16,3 C 3,2 km/h (1 Bft) 98,00 %
18.07.2016 00:42 16,3 C 96 % 1019,9 hPa 0,2 l/m 4,9 km/h (1 Bft) NO 35 0 min 0,000 mm 0,0 UV-I 0 W/m 15,7 C 16,3 C 6,4 km/h (2 Bft) 100,00 %
18.07.2016 00:44 16,3 C 96 % 1019,9 hPa 0,0 l/m 5,1 km/h (1 Bft) N-NO 22 0 min 0,000 mm 0,0 UV-I 0 W/m 15,7 C 16,3 C 8,0 km/h (2 Bft) 97,87 %
18.07.2016 00:46 16,3 C 96 % 1019,8 hPa 0,2 l/m 4,7 km/h (1 Bft) O-NO 60 0 min 0,000 mm 0,0 UV-I 0 W/m 15,7 C 16,3 C 6,4 km/h (2 Bft) 100,00 %
18.07.2016 00:48 16,3 C 96 % 1019,7 hPa 0,0 l/m 4,9 km/h (1 Bft) O-NO 73 0 min 0,000 mm 0,0 UV-I 0 W/m 15,7 C 16,3 C 6,4 km/h (2 Bft) 97,92 %
18.07.2016 00:50 16,3 C 96 % 1019,7 hPa 0,2 l/m 4,8 km/h (1 Bft) O-NO 74 0 min 0,000 mm 0,0 UV-I 0 W/m 15,7 C 16,3 C 6,4 km/h (2 Bft) 95,74 %
18.07.2016 00:52 16,3 C 96 % 1019,7 hPa 0,0 l/m 2,4 km/h (1 Bft) O 82 0 min 0,000 mm 0,0 UV-I 0 W/m 15,7 C 16,3 C 3,2 km/h (1 Bft) 93,62 %
18.07.2016 00:54 16,3 C 96 % 1019,9 hPa 0,0 l/m 0,3 km/h (0 Bft) O 82 0 min 0,000 mm 0,0 UV-I 0 W/m 15,7 C 16,3 C 1,6 km/h (1 Bft) 93,62 %
18.07.2016 00:56 16,3 C 96 % 1020,0 hPa 0,0 l/m 2,2 km/h (1 Bft) N 11 0 min 0,000 mm 0,0 UV-I 0 W/m 15,7 C 16,3 C 3,2 km/h (1 Bft) 94,74 %
18.07.2016 00:58 16,3 C 96 % 1019,9 hPa 0,0 l/m 0,2 km/h (0 Bft) N 11 0 min 0,000 mm 0,0 UV-I 0 W/m 15,7 C 16,3 C 1,6 km/h (1 Bft) 97,87 %
18.07.2016 01:00 16,3 C 96 % 1019,9 hPa 0,0 l/m 0,0 km/h (0 Bft) N 11 0 min 0,000 mm 0,0 UV-I 0 W/m 15,7 C 16,3 C 0,0 km/h (0 Bft) 97,87 %
18.07.2016 01:01 16,2 C 96 % 1019,9 hPa 0,0 l/m 0,7 km/h (0 Bft) N 11 0 min 0,000 mm 0,0 UV-I 0 W/m 15,6 C 16,2 C 3,2 km/h (1 Bft) 93,62 %
18.07.2016 01:04 16,2 C 96 % 1019,8 hPa 0,2 l/m 0,6 km/h (0 Bft) N 11 0 min 0,000 mm 0,0 UV-I 0 W/m 15,6 C 16,2 C 1,6 km/h (1 Bft) 96,61 %
18.07.2016 01:06 16,2 C 96 % 1019,8 hPa 0,0 l/m 0,1 km/h (0 Bft) N-NO 30 0 min 0,000 mm 0,0 UV-I 0 W/m 15,6 C 16,2 C 1,6 km/h (1 Bft) 97,87 %
18.07.2016 01:08 16,2 C 96 % 1019,8 hPa 0,0 l/m 0,1 km/h (0 Bft) NO 34 0 min 0,000 mm 0,0 UV-I 0 W/m 15,6 C 16,2 C 1,6 km/h (1 Bft) 94,29 %
18.07.2016 01:10 16,2 C 96 % 1019,9 hPa 0,0 l/m 0,1 km/h (0 Bft) NO 34 0 min 0,000 mm 0,0 UV-I 0 W/m 15,6 C 16,2 C 1,6 km/h (1 Bft) 97,87 %
18.07.2016 01:12 16,2 C 96 % 1019,9 hPa 0,0 l/m 1,0 km/h (0 Bft) O 86 0 min 0,000 mm 0,0 UV-I 0 W/m 15,6 C 16,2 C 3,2 km/h (1 Bft) 93,75 %
18.07.2016 01:14 16,2 C 96 % 1019,9 hPa 0,0 l/m 1,0 km/h (0 Bft) O 86 0 min 0,000 mm 0,0 UV-I 0 W/m 15,6 C 16,2 C 1,6 km/h (1 Bft) 97,87 %
18.07.2016 01:16 16,2 C 96 % 1020,0 hPa 0,0 l/m 0,4 km/h (0 Bft) O 86 0 min 0,000 mm 0,0 UV-I 0 W/m 15,6 C 16,2 C 1,6 km/h (1 Bft) 95,74 %
18.07.2016 01:18 16,2 C 96 % 1020,1 hPa 0,0 l/m 0,0 km/h (0 Bft) O 86 0 min 0,000 mm 0,0 UV-I 0 W/m 15,6 C 16,2 C 0,0 km/h (0 Bft) 97,87 %
18.07.2016 01:20 16,2 C 96 % 1020,3 hPa 0,0 l/m 1,7 km/h (1 Bft) O 86 0 min 0,000 mm 0,0 UV-I 0 W/m 15,6 C 16,2 C 3,2 km/h (1 Bft) 97,87 %
18.07.2016 01:22 16,2 C 96 % 1020,2 hPa 0,0 l/m 3,0 km/h (1 Bft) N-NW 334 0 min 0,000 mm 0,0 UV-I 0 W/m 15,6 C 16,2 C 4,8 km/h (1 Bft) 100,00 %
18.07.2016 01:24 16,2 C 96 % 1020,2 hPa 0,0 l/m 0,7 km/h (0 Bft) N-NW 334 0 min 0,000 mm 0,0 UV-I 0 W/m 15,6 C 16,2 C 3,2 km/h (1 Bft) 100,00 %
18.07.2016 01:26 16,2 C 96 % 1020,2 hPa 0,0 l/m 0,0 km/h (0 Bft) N-NW 334 0 min 0,000 mm 0,0 UV-I 0 W/m 15,6 C 16,2 C 0,0 km/h (0 Bft) 97,87 %
18.07.2016 01:28 16,2 C 96 % 1020,3 hPa 0,0 l/m 0,3 km/h (0 Bft) N-NW 334 0 min 0,000 mm 0,0 UV-I 0 W/m 15,6 C 16,2 C 1,6 km/h (1 Bft) 95,74 %
18.07.2016 01:30 16,2 C 96 % 1020,4 hPa 0,0 l/m 0,8 km/h (0 Bft) N-NW 334 0 min 0,000 mm 0,0 UV-I 0 W/m 15,6 C 16,2 C 3,2 km/h (1 Bft) 95,74 %
18.07.2016 01:32 16,2 C 97 % 1020,3 hPa 0,0 l/m 1,5 km/h (1 Bft) N-NW 334 0 min 0,000 mm 0,0 UV-I 0 W/m 15,7 C 16,2 C 3,2 km/h (1 Bft) 97,87 %
18.07.2016 01:34 16,2 C 96 % 1020,4 hPa 0,0 l/m 0,3 km/h (0 Bft) N-NW 334 0 min 0,000 mm 0,0 UV-I 0 W/m 15,6 C 16,2 C 1,6 km/h (1 Bft) 100,00 %
18.07.2016 01:36 16,2 C 96 % 1020,4 hPa 0,0 l/m 1,4 km/h (1 Bft) N-NW 334 0 min 0,000 mm 0,0 UV-I 0 W/m 15,6 C 16,2 C 3,2 km/h (1 Bft) 97,87 %
18.07.2016 01:38 16,2 C 97 % 1020,3 hPa 0,0 l/m 2,6 km/h (1 Bft) N-NW 334 0 min 0,000 mm 0,0 UV-I 0 W/m 15,7 C 16,2 C 3,2 km/h (1 Bft) 100,00 %
18.07.2016 01:40 16,2 C 97 % 1020,3 hPa 0,0 l/m 3,5 km/h (1 Bft) S 181 0 min 0,000 mm 0,0 UV-I 0 W/m 15,7 C 16,2 C 4,8 km/h (1 Bft) 100,00 %
18.07.2016 01:42 16,2 C 97 % 1020,2 hPa 0,0 l/m 1,6 km/h (1 Bft) S 180 0 min 0,000 mm 0,0 UV-I 0 W/m 15,7 C 16,2 C 3,2 km/h (1 Bft) 100,00 %
18.07.2016 01:44 16,2 C 97 % 1020,1 hPa 0,0 l/m 2,7 km/h (1 Bft) S-SO 157 0 min 0,000 mm 0,0 UV-I 0 W/m 15,7 C 16,2 C 6,4 km/h (2 Bft) 100,00 %
18.07.2016 01:46 16,2 C 97 % 1020,1 hPa 0,2 l/m 3,3 km/h (1 Bft) SO 146 0 min 0,000 mm 0,0 UV-I 0 W/m 15,7 C 16,2 C 4,8 km/h (1 Bft) 100,00 %
18.07.2016 01:48 16,1 C 97 % 1020,0 hPa 0,0 l/m 2,6 km/h (1 Bft) SO 146 0 min 0,000 mm 0,0 UV-I 0 W/m 15,6 C 16,1 C 6,4 km/h (2 Bft) 95,74 %
18.07.2016 01:50 16,2 C 97 % 1020,0 hPa 0,0 l/m 1,9 km/h (1 Bft) S-SO 152 0 min 0,000 mm 0,0 UV-I 0 W/m 15,7 C 16,2 C 3,2 km/h (1 Bft) 100,00 %
18.07.2016 01:52 16,1 C 97 % 1020,0 hPa 0,0 l/m 5,2 km/h (1 Bft) S 191 0 min 0,000 mm 0,0 UV-I 0 W/m 15,6 C 16,1 C 9,7 km/h (2 Bft) 100,00 %
18.07.2016 01:54 16,1 C 97 % 1019,9 hPa 0,0 l/m 1,8 km/h (1 Bft) S 191 0 min 0,000 mm 0,0 UV-I 0 W/m 15,6 C 16,1 C 4,8 km/h (1 Bft) 100,00 %
18.07.2016 01:56 16,1 C 97 % 1020,1 hPa 0,0 l/m 0,3 km/h (0 Bft) S 191 0 min 0,000 mm 0,0 UV-I 0 W/m 15,6 C 16,1 C 1,6 km/h (1 Bft) 100,00 %
18.07.2016 01:58 16,1 C 97 % 1020,0 hPa 0,0 l/m 0,0 km/h (0 Bft) S 191 0 min 0,000 mm 0,0 UV-I 0 W/m 15,6 C 16,1 C 0,0 km/h (0 Bft) 100,00 %
18.07.2016 02:00 16,1 C 97 % 1020,0 hPa 0,0 l/m 2,8 km/h (1 Bft) S 191 0 min 0,000 mm 0,0 UV-I 0 W/m 15,6 C 16,1 C 4,8 km/h (1 Bft) 100,00 %
18.07.2016 02:02 16,1 C 97 % 1019,9 hPa 0,0 l/m 2,0 km/h (1 Bft) SO 138 0 min 0,000 mm 0,0 UV-I 0 W/m 15,6 C 16,1 C 6,4 km/h (2 Bft) 100,00 %
18.07.2016 02:04 16,1 C 97 % 1019,9 hPa 0,0 l/m 3,8 km/h (1 Bft) S-SO 161 0 min 0,000 mm 0,0 UV-I 0 W/m 15,6 C 16,1 C 8,0 km/h (2 Bft) 100,00 %
18.07.2016 02:06 16,1 C 97 % 1019,9 hPa 0,0 l/m 3,8 km/h (1 Bft) S 178 0 min 0,000 mm 0,0 UV-I 0 W/m 15,6 C 16,1 C 8,0 km/h (2 Bft) 100,00 %
18.07.2016 02:08 16,1 C 97 % 1019,9 hPa 0,0 l/m 7,4 km/h (2 Bft) S-SW 205 0 min 0,000 mm 0,0 UV-I 0 W/m 15,6 C 15,6 C 11,3 km/h (2 Bft) 100,00 %
18.07.2016 02:10 16,1 C 97 % 1019,9 hPa 0,0 l/m 4,0 km/h (1 Bft) S-SW 198 0 min 0,000 mm 0,0 UV-I 0 W/m 15,6 C 16,1 C 8,0 km/h (2 Bft) 100,00 %
18.07.2016 02:12 16,1 C 97 % 1020,1 hPa 0,0 l/m 2,0 km/h (1 Bft) SW 223 0 min 0,000 mm 0,0 UV-I 0 W/m 15,6 C 16,1 C 3,2 km/h (1 Bft) 100,00 %
18.07.2016 02:14 16,1 C 97 % 1020,2 hPa 0,0 l/m 3,0 km/h (1 Bft) NW 312 0 min 0,000 mm 0,0 UV-I 0 W/m 15,6 C 16,1 C 4,8 km/h (1 Bft) 100,00 %
18.07.2016 02:16 16,0 C 97 % 1020,2 hPa 0,0 l/m 1,8 km/h (1 Bft) NW 315 0 min 0,000 mm 0,0 UV-I 0 W/m 15,5 C 16,0 C 3,2 km/h (1 Bft) 100,00 %
18.07.2016 02:18 16,0 C 97 % 1020,2 hPa 0,0 l/m 1,3 km/h (1 Bft) NW 315 0 min 0,000 mm 0,0 UV-I 0 W/m 15,5 C 16,0 C 3,2 km/h (1 Bft) 100,00 %
18.07.2016 02:20 16,0 C 97 % 1020,2 hPa 0,0 l/m 2,1 km/h (1 Bft) W-SW 242 0 min 0,000 mm 0,0 UV-I 0 W/m 15,5 C 16,0 C 4,8 km/h (1 Bft) 97,87 %
18.07.2016 02:22 16,0 C 97 % 1020,2 hPa 0,0 l/m 3,5 km/h (1 Bft) W-SW 242 0 min 0,000 mm 0,0 UV-I 0 W/m 15,5 C 16,0 C 4,8 km/h (1 Bft) 100,00 %
18.07.2016 02:24 16,0 C 97 % 1020,1 hPa 0,0 l/m 3,2 km/h (1 Bft) W-SW 239 0 min 0,000 mm 0,0 UV-I 0 W/m 15,5 C 16,0 C 4,8 km/h (1 Bft) 100,00 %
18.07.2016 02:26 16,0 C 97 % 1020,1 hPa 0,0 l/m 3,1 km/h (1 Bft) W-SW 239 0 min 0,000 mm 0,0 UV-I 0 W/m 15,5 C 16,0 C 4,8 km/h (1 Bft) 100,00 %
18.07.2016 02:28 16,0 C 97 % 1020,1 hPa 0,0 l/m 0,9 km/h (0 Bft) W-SW 239 0 min 0,000 mm 0,0 UV-I 0 W/m 15,5 C 16,0 C 1,6 km/h (1 Bft) 100,00 %
18.07.2016 02:30 16,0 C 97 % 1020,1 hPa 0,0 l/m 0,0 km/h (0 Bft) W-SW 239 0 min 0,000 mm 0,0 UV-I 0 W/m 15,5 C 16,0 C 0,0 km/h (0 Bft) 97,92 %
18.07.2016 02:32 16,0 C 97 % 1020,1 hPa 0,0 l/m 0,0 km/h (0 Bft) W-SW 239 0 min 0,000 mm 0,0 UV-I 0 W/m 15,5 C 16,0 C 0,0 km/h (0 Bft) 100,00 %
18.07.2016 02:34 16,0 C 97 % 1020,1 hPa 0,0 l/m 0,0 km/h (0 Bft) W-SW 239 0 min 0,000 mm 0,0 UV-I 0 W/m 15,5 C 16,0 C 0,0 km/h (0 Bft) 100,00 %
18.07.2016 02:36 16,0 C 97 % 1020,2 hPa 0,0 l/m 0,0 km/h (0 Bft) W-SW 239 0 min 0,000 mm 0,0 UV-I 0 W/m 15,5 C 16,0 C 0,0 km/h (0 Bft) 100,00 %
18.07.2016 02:38 16,0 C 97 % 1020,2 hPa 0,0 l/m 0,0 km/h (0 Bft) W-SW 239 0 min 0,000 mm 0,0 UV-I 0 W/m 15,5 C 16,0 C 0,0 km/h (0 Bft) 97,87 %
18.07.2016 02:40 16,0 C 97 % 1020,1 hPa 0,0 l/m 0,0 km/h (0 Bft) W-SW 239 0 min 0,000 mm 0,0 UV-I 0 W/m 15,5 C 16,0 C 0,0 km/h (0 Bft) 97,87 %
18.07.2016 02:42 16,0 C 97 % 1020,1 hPa 0,0 l/m 0,0 km/h (0 Bft) W-SW 238 0 min 0,000 mm 0,0 UV-I 0 W/m 15,5 C 16,0 C 0,0 km/h (0 Bft) 95,74 %
18.07.2016 02:44 16,0 C 97 % 1020,0 hPa 0,0 l/m 0,0 km/h (0 Bft) W-SW 237 0 min 0,000 mm 0,0 UV-I 0 W/m 15,5 C 16,0 C 0,0 km/h (0 Bft) 97,87 %
18.07.2016 02:46 15,9 C 97 % 1019,9 hPa 0,0 l/m 0,0 km/h (0 Bft) S-SW 196 0 min 0,000 mm 0,0 UV-I 0 W/m 15,4 C 15,9 C 0,0 km/h (0 Bft) 94,87 %
18.07.2016 02:48 15,9 C 97 % 1020,0 hPa 0,0 l/m 0,0 km/h (0 Bft) S 190 0 min 0,000 mm 0,0 UV-I 0 W/m 15,4 C 15,9 C 0,0 km/h (0 Bft) 95,74 %
18.07.2016 02:50 15,9 C 97 % 1019,9 hPa 0,0 l/m 0,0 km/h (0 Bft) S 190 0 min 0,000 mm 0,0 UV-I 0 W/m 15,4 C 15,9 C 0,0 km/h (0 Bft) 93,62 %
18.07.2016 02:52 15,9 C 97 % 1019,8 hPa 0,0 l/m 0,0 km/h (0 Bft) S 190 0 min 0,000 mm 0,0 UV-I 0 W/m 15,4 C 15,9 C 0,0 km/h (0 Bft) 95,74 %
18.07.2016 02:54 15,9 C 97 % 1019,9 hPa 0,0 l/m 0,0 km/h (0 Bft) S-SO 163 0 min 0,000 mm 0,0 UV-I 0 W/m 15,4 C 15,9 C 0,0 km/h (0 Bft) 94,00 %
18.07.2016 02:56 15,9 C 97 % 1019,8 hPa 0,0 l/m 0,0 km/h (0 Bft) S-SO 166 0 min 0,000 mm 0,0 UV-I 0 W/m 15,4 C 15,9 C 0,0 km/h (0 Bft) 97,87 %
18.07.2016 02:58 15,9 C 97 % 1019,8 hPa 0,0 l/m 0,1 km/h (0 Bft) S-SO 166 0 min 0,000 mm 0,0 UV-I 0 W/m 15,4 C 15,9 C 1,6 km/h (1 Bft) 97,87 %
18.07.2016 03:00 15,9 C 97 % 1019,8 hPa 0,0 l/m 0,2 km/h (0 Bft) S 175 0 min 0,000 mm 0,0 UV-I 0 W/m 15,4 C 15,9 C 1,6 km/h (1 Bft) 95,74 %
18.07.2016 03:02 15,9 C 97 % 1019,8 hPa 0,0 l/m 0,2 km/h (0 Bft) S 189 0 min 0,000 mm 0,0 UV-I 0 W/m 15,4 C 15,9 C 1,6 km/h (1 Bft) 96,00 %
18.07.2016 03:04 15,9 C 97 % 1019,8 hPa 0,0 l/m 0,3 km/h (0 Bft) S 189 0 min 0,000 mm 0,0 UV-I 0 W/m 15,4 C 15,9 C 1,6 km/h (1 Bft) 97,87 %
18.07.2016 03:06 15,9 C 97 % 1019,7 hPa 0,0 l/m 3,4 km/h (1 Bft) S 177 0 min 0,000 mm 0,0 UV-I 0 W/m 15,4 C 15,9 C 9,7 km/h (2 Bft) 97,87 %
18.07.2016 03:08 15,9 C 97 % 1019,7 hPa 0,0 l/m 5,6 km/h (1 Bft) S-SW 197 0 min 0,000 mm 0,0 UV-I 0 W/m 15,4 C 15,9 C 9,7 km/h (2 Bft) 97,37 %
18.07.2016 03:10 15,9 C 97 % 1019,6 hPa 0,0 l/m 5,9 km/h (2 Bft) S 184 0 min 0,000 mm 0,0 UV-I 0 W/m 15,4 C 15,9 C 9,7 km/h (2 Bft) 97,87 %
18.07.2016 03:12 15,9 C 97 % 1019,6 hPa 0,0 l/m 4,3 km/h (1 Bft) S 181 0 min 0,000 mm 0,0 UV-I 0 W/m 15,4 C 15,9 C 8,0 km/h (2 Bft) 93,62 %
18.07.2016 03:14 15,9 C 97 % 1019,6 hPa 0,0 l/m 2,4 km/h (1 Bft) S 174 0 min 0,000 mm 0,0 UV-I 0 W/m 15,4 C 15,9 C 4,8 km/h (1 Bft) 97,87 %
18.07.2016 03:16 15,9 C 97 % 1019,6 hPa 0,0 l/m 1,9 km/h (1 Bft) S 175 0 min 0,000 mm 0,0 UV-I 0 W/m 15,4 C 15,9 C 6,4 km/h (2 Bft) 97,87 %
18.07.2016 03:18 15,9 C 97 % 1019,6 hPa 0,0 l/m 1,9 km/h (1 Bft) S 180 0 min 0,000 mm 0,0 UV-I 0 W/m 15,4 C 15,9 C 4,8 km/h (1 Bft) 100,00 %
18.07.2016 03:20 15,9 C 97 % 1019,5 hPa 0,0 l/m 2,0 km/h (1 Bft) S 178 0 min 0,000 mm 0,0 UV-I 0 W/m 15,4 C 15,9 C 4,8 km/h (1 Bft) 100,00 %
18.07.2016 03:22 15,9 C 97 % 1019,6 hPa 0,0 l/m 0,5 km/h (0 Bft) S 178 0 min 0,000 mm 0,0 UV-I 0 W/m 15,4 C 15,9 C 3,2 km/h (1 Bft) 100,00 %
18.07.2016 03:24 15,9 C 97 % 1019,6 hPa 0,0 l/m 0,4 km/h (0 Bft) S 178 0 min 0,000 mm 0,0 UV-I 0 W/m 15,4 C 15,9 C 3,2 km/h (1 Bft) 98,00 %
18.07.2016 03:26 15,9 C 97 % 1019,6 hPa 0,0 l/m 0,0 km/h (0 Bft) S 178 0 min 0,000 mm 0,0 UV-I 0 W/m 15,4 C 15,9 C 0,0 km/h (0 Bft) 97,92 %
18.07.2016 03:28 15,9 C 97 % 1019,6 hPa 0,0 l/m 0,9 km/h (0 Bft) S 178 0 min 0,000 mm 0,0 UV-I 0 W/m 15,4 C 15,9 C 3,2 km/h (1 Bft) 100,00 %
18.07.2016 03:30 15,9 C 97 % 1019,6 hPa 0,0 l/m 1,3 km/h (1 Bft) S 178 0 min 0,000 mm 0,0 UV-I 0 W/m 15,4 C 15,9 C 3,2 km/h (1 Bft) 97,87 %
18.07.2016 03:32 15,9 C 97 % 1019,5 hPa 0,0 l/m 1,8 km/h (1 Bft) S 178 0 min 0,000 mm 0,0 UV-I 0 W/m 15,4 C 15,9 C 3,2 km/h (1 Bft) 100,00 %
18.07.2016 03:34 15,9 C 97 % 1019,5 hPa 0,0 l/m 1,7 km/h (1 Bft) S 178 0 min 0,000 mm 0,0 UV-I 0 W/m 15,4 C 15,9 C 3,2 km/h (1 Bft) 98,00 %
18.07.2016 03:36 15,9 C 97 % 1019,5 hPa 0,0 l/m 0,0 km/h (0 Bft) S 178 0 min 0,000 mm 0,0 UV-I 0 W/m 15,4 C 15,9 C 1,6 km/h (1 Bft) 100,00 %
18.07.2016 03:38 15,9 C 97 % 1019,5 hPa 0,0 l/m 0,0 km/h (0 Bft) S 178 0 min 0,000 mm 0,0 UV-I 0 W/m 15,4 C 15,9 C 0,0 km/h (0 Bft) 100,00 %
18.07.2016 03:40 15,9 C 97 % 1019,4 hPa 0,0 l/m 0,0 km/h (0 Bft) S 178 0 min 0,000 mm 0,0 UV-I 0 W/m 15,4 C 15,9 C 0,0 km/h (0 Bft) 100,00 %
18.07.2016 03:42 15,9 C 97 % 1019,4 hPa 0,0 l/m 0,4 km/h (0 Bft) S 178 0 min 0,000 mm 0,0 UV-I 0 W/m 15,4 C 15,9 C 3,2 km/h (1 Bft) 100,00 %
18.07.2016 03:44 15,9 C 97 % 1019,4 hPa 0,0 l/m 0,0 km/h (0 Bft) S 178 0 min 0,000 mm 0,0 UV-I 0 W/m 15,4 C 15,9 C 1,6 km/h (1 Bft) 100,00 %
18.07.2016 03:46 15,8 C 96 % 1019,4 hPa 0,0 l/m 0,0 km/h (0 Bft) S 178 0 min 0,000 mm 0,0 UV-I 0 W/m 15,2 C 15,8 C 1,6 km/h (1 Bft) 100,00 %
18.07.2016 03:48 15,8 C 96 % 1019,3 hPa 0,0 l/m 0,0 km/h (0 Bft) S 178 0 min 0,000 mm 0,0 UV-I 0 W/m 15,2 C 15,8 C 0,0 km/h (0 Bft) 97,87 %
18.07.2016 03:50 15,8 C 96 % 1019,4 hPa 0,0 l/m 0,0 km/h (0 Bft) S 178 0 min 0,000 mm 0,0 UV-I 0 W/m 15,2 C 15,8 C 0,0 km/h (0 Bft) 97,87 %
18.07.2016 03:52 15,8 C 96 % 1019,3 hPa 0,0 l/m 0,0 km/h (0 Bft) S 178 0 min 0,000 mm 0,0 UV-I 0 W/m 15,2 C 15,8 C 0,0 km/h (0 Bft) 100,00 %
18.07.2016 03:54 15,8 C 96 % 1019,3 hPa 0,0 l/m 0,0 km/h (0 Bft) S 178 0 min 0,000 mm 0,0 UV-I 0 W/m 15,2 C 15,8 C 0,0 km/h (0 Bft) 97,37 %
18.07.2016 03:56 15,7 C 96 % 1019,3 hPa 0,0 l/m 0,0 km/h (0 Bft) S 178 0 min 0,000 mm 0,0 UV-I 0 W/m 15,1 C 15,7 C 0,0 km/h (0 Bft) 100,00 %
18.07.2016 03:58 15,7 C 96 % 1019,3 hPa 0,0 l/m 0,0 km/h (0 Bft) S 178 0 min 0,000 mm 0,0 UV-I 0 W/m 15,1 C 15,7 C 0,0 km/h (0 Bft) 100,00 %
18.07.2016 04:00 15,7 C 96 % 1019,3 hPa 0,0 l/m 0,0 km/h (0 Bft) S 178 0 min 0,000 mm 0,0 UV-I 0 W/m 15,1 C 15,7 C 0,0 km/h (0 Bft) 97,87 %
18.07.2016 04:02 15,7 C 97 % 1019,3 hPa 0,0 l/m 0,0 km/h (0 Bft) S 178 0 min 0,000 mm 0,0 UV-I 0 W/m 15,2 C 15,7 C 0,0 km/h (0 Bft) 96,67 %
18.07.2016 04:04 15,7 C 97 % 1019,2 hPa 0,0 l/m 0,0 km/h (0 Bft) S 178 0 min 0,000 mm 0,0 UV-I 0 W/m 15,2 C 15,7 C 0,0 km/h (0 Bft) 97,87 %
18.07.2016 04:06 15,6 C 97 % 1019,2 hPa 0,0 l/m 0,0 km/h (0 Bft) S 178 0 min 0,000 mm 0,0 UV-I 0 W/m 15,1 C 15,6 C 0,0 km/h (0 Bft) 97,87 %
18.07.2016 04:08 15,6 C 97 % 1019,3 hPa 0,0 l/m 1,1 km/h (1 Bft) S 178 0 min 0,000 mm 0,0 UV-I 0 W/m 15,1 C 15,6 C 3,2 km/h (1 Bft) 98,00 %
18.07.2016 04:10 15,6 C 97 % 1019,2 hPa 0,0 l/m 0,3 km/h (0 Bft) S 178 0 min 0,000 mm 0,0 UV-I 0 W/m 15,1 C 15,6 C 1,6 km/h (1 Bft) 100,00 %
18.07.2016 04:12 15,6 C 97 % 1019,2 hPa 0,0 l/m 0,0 km/h (0 Bft) S 178 0 min 0,000 mm 0,0 UV-I 0 W/m 15,1 C 15,6 C 0,0 km/h (0 Bft) 97,87 %
18.07.2016 04:14 15,5 C 97 % 1019,2 hPa 0,0 l/m 0,0 km/h (0 Bft) S 178 0 min 0,000 mm 0,0 UV-I 0 W/m 15,0 C 15,5 C 0,0 km/h (0 Bft) 97,87 %
18.07.2016 04:16 15,6 C 97 % 1019,2 hPa 0,0 l/m 0,2 km/h (0 Bft) S 178 0 min 0,000 mm 0,0 UV-I 0 W/m 15,1 C 15,6 C 1,6 km/h (1 Bft) 100,00 %
18.07.2016 04:18 15,5 C 97 % 1019,1 hPa 0,0 l/m 0,2 km/h (0 Bft) S 178 0 min 0,000 mm 0,0 UV-I 0 W/m 15,0 C 15,5 C 3,2 km/h (1 Bft) 97,87 %
18.07.2016 04:20 15,5 C 97 % 1019,1 hPa 0,0 l/m 0,2 km/h (0 Bft) S 178 0 min 0,000 mm 0,0 UV-I 0 W/m 15,0 C 15,5 C 1,6 km/h (1 Bft) 95,74 %
18.07.2016 04:22 15,4 C 97 % 1019,1 hPa 0,0 l/m 2,1 km/h (1 Bft) S 178 0 min 0,000 mm 0,0 UV-I 0 W/m 14,9 C 15,4 C 3,2 km/h (1 Bft) 93,62 %
18.07.2016 04:24 15,4 C 97 % 1019,0 hPa 0,0 l/m 2,1 km/h (1 Bft) S 178 0 min 0,000 mm 0,0 UV-I 0 W/m 14,9 C 15,4 C 3,2 km/h (1 Bft) 97,87 %
18.07.2016 04:26 15,5 C 97 % 1019,1 hPa 0,0 l/m 3,1 km/h (1 Bft) S 178 0 min 0,000 mm 0,0 UV-I 0 W/m 15,0 C 15,5 C 4,8 km/h (1 Bft) 100,00 %
18.07.2016 04:28 15,5 C 97 % 1019,1 hPa 0,0 l/m 2,9 km/h (1 Bft) S 178 0 min 0,000 mm 0,0 UV-I 0 W/m 15,0 C 15,5 C 4,8 km/h (1 Bft) 100,00 %
18.07.2016 04:30 15,5 C 97 % 1019,1 hPa 0,0 l/m 2,2 km/h (1 Bft) S 178 0 min 0,000 mm 0,0 UV-I 0 W/m 15,0 C 15,5 C 3,2 km/h (1 Bft) 97,87 %
18.07.2016 04:32 15,5 C 97 % 1019,2 hPa 0,0 l/m 3,2 km/h (1 Bft) S-SW 192 0 min 0,000 mm 0,0 UV-I 0 W/m 15,0 C 15,5 C 4,8 km/h (1 Bft) 97,87 %
18.07.2016 04:34 15,5 C 97 % 1019,2 hPa 0,0 l/m 2,7 km/h (1 Bft) S-SW 192 0 min 0,000 mm 0,0 UV-I 0 W/m 15,0 C 15,5 C 4,8 km/h (1 Bft) 100,00 %
18.07.2016 04:36 15,5 C 97 % 1019,2 hPa 0,0 l/m 2,3 km/h (1 Bft) S-SW 192 0 min 0,000 mm 0,0 UV-I 0 W/m 15,0 C 15,5 C 4,8 km/h (1 Bft) 97,87 %
18.07.2016 04:38 15,5 C 97 % 1019,2 hPa 0,0 l/m 1,1 km/h (1 Bft) S-SW 192 0 min 0,000 mm 0,0 UV-I 0 W/m 15,0 C 15,5 C 3,2 km/h (1 Bft) 100,00 %
18.07.2016 04:40 15,5 C 97 % 1019,2 hPa 0,0 l/m 0,5 km/h (0 Bft) S-SW 192 0 min 0,000 mm 0,0 UV-I 0 W/m 15,0 C 15,5 C 1,6 km/h (1 Bft) 100,00 %
18.07.2016 04:42 15,4 C 97 % 1019,2 hPa 0,0 l/m 1,5 km/h (1 Bft) S-SW 192 0 min 0,000 mm 0,0 UV-I 0 W/m 14,9 C 15,4 C 3,2 km/h (1 Bft) 100,00 %
18.07.2016 04:44 15,4 C 97 % 1019,2 hPa 0,0 l/m 1,6 km/h (1 Bft) S-SW 192 0 min 0,000 mm 0,0 UV-I 0 W/m 14,9 C 15,4 C 3,2 km/h (1 Bft) 97,87 %
18.07.2016 04:46 15,4 C 97 % 1019,2 hPa 0,0 l/m 1,3 km/h (1 Bft) S-SW 192 0 min 0,000 mm 0,0 UV-I 0 W/m 14,9 C 15,4 C 3,2 km/h (1 Bft) 97,62 %
18.07.2016 04:48 15,4 C 97 % 1019,2 hPa 0,0 l/m 0,7 km/h (0 Bft) S-SW 192 0 min 0,000 mm 0,0 UV-I 0 W/m 14,9 C 15,4 C 1,6 km/h (1 Bft) 98,00 %
18.07.2016 04:50 15,4 C 97 % 1019,2 hPa 0,0 l/m 0,4 km/h (0 Bft) S-SW 192 0 min 0,000 mm 0,0 UV-I 0 W/m 14,9 C 15,4 C 1,6 km/h (1 Bft) 97,87 %
18.07.2016 04:52 15,4 C 97 % 1019,2 hPa 0,0 l/m 0,4 km/h (0 Bft) S-SW 192 0 min 0,000 mm 0,0 UV-I 0 W/m 14,9 C 15,4 C 1,6 km/h (1 Bft) 97,87 %
18.07.2016 04:54 15,4 C 97 % 1019,2 hPa 0,0 l/m 0,1 km/h (0 Bft) S-SW 192 0 min 0,000 mm 0,0 UV-I 0 W/m 14,9 C 15,4 C 1,6 km/h (1 Bft) 95,74 %
18.07.2016 04:56 15,4 C 97 % 1019,2 hPa 0,0 l/m 0,0 km/h (0 Bft) S-SW 192 0 min 0,000 mm 0,0 UV-I 0 W/m 14,9 C 15,4 C 0,0 km/h (0 Bft) 97,87 %
18.07.2016 04:58 15,4 C 97 % 1019,2 hPa 0,0 l/m 0,0 km/h (0 Bft) S-SW 192 0 min 0,000 mm 0,0 UV-I 0 W/m 14,9 C 15,4 C 0,0 km/h (0 Bft) 97,87 %
18.07.2016 05:00 15,4 C 97 % 1019,2 hPa 0,0 l/m 0,0 km/h (0 Bft) S-SW 192 0 min 0,000 mm 0,0 UV-I 0 W/m 14,9 C 15,4 C 0,0 km/h (0 Bft) 97,87 %
18.07.2016 05:02 15,4 C 97 % 1019,2 hPa 0,0 l/m 0,0 km/h (0 Bft) S-SW 192 0 min 0,000 mm 0,0 UV-I 0 W/m 14,9 C 15,4 C 0,0 km/h (0 Bft) 95,74 %
18.07.2016 05:04 15,4 C 97 % 1019,2 hPa 0,0 l/m 1,3 km/h (1 Bft) S-SW 192 0 min 0,000 mm 0,0 UV-I 0 W/m 14,9 C 15,4 C 3,2 km/h (1 Bft) 97,87 %
18.07.2016 05:06 15,4 C 97 % 1019,2 hPa 0,0 l/m 1,2 km/h (1 Bft) S-SW 192 0 min 0,000 mm 0,0 UV-I 0 W/m 14,9 C 15,4 C 1,6 km/h (1 Bft) 94,29 %
18.07.2016 05:08 15,4 C 97 % 1019,3 hPa 0,0 l/m 0,0 km/h (0 Bft) S-SW 192 0 min 0,000 mm 0,0 UV-I 0 W/m 14,9 C 15,4 C 0,0 km/h (0 Bft) 96,00 %
18.07.2016 05:10 15,4 C 97 % 1019,3 hPa 0,0 l/m 0,0 km/h (0 Bft) S-SW 192 0 min 0,000 mm 0,0 UV-I 0 W/m 14,9 C 15,4 C 0,0 km/h (0 Bft) 97,87 %
18.07.2016 05:12 15,4 C 97 % 1019,3 hPa 0,0 l/m 0,0 km/h (0 Bft) S-SW 192 0 min 0,000 mm 0,0 UV-I 0 W/m 14,9 C 15,4 C 0,0 km/h (0 Bft) 95,74 %
18.07.2016 05:14 15,4 C 97 % 1019,3 hPa 0,0 l/m 0,0 km/h (0 Bft) S-SW 192 0 min 0,000 mm 0,0 UV-I 0 W/m 14,9 C 15,4 C 0,0 km/h (0 Bft) 95,74 %
18.07.2016 05:16 15,3 C 97 % 1019,4 hPa 0,0 l/m 0,0 km/h (0 Bft) S-SW 192 0 min 0,000 mm 0,0 UV-I 0 W/m 14,8 C 15,3 C 0,0 km/h (0 Bft) 97,87 %
18.07.2016 05:18 15,3 C 97 % 1019,4 hPa 0,0 l/m 0,0 km/h (0 Bft) S-SW 192 0 min 0,000 mm 0,0 UV-I 0 W/m 14,8 C 15,3 C 0,0 km/h (0 Bft) 100,00 %
18.07.2016 05:20 15,3 C 97 % 1019,4 hPa 0,0 l/m 0,0 km/h (0 Bft) S-SW 192 0 min 0,000 mm 0,0 UV-I 0 W/m 14,8 C 15,3 C 0,0 km/h (0 Bft) 97,87 %
18.07.2016 05:22 15,2 C 97 % 1019,4 hPa 0,0 l/m 0,0 km/h (0 Bft) S-SW 192 0 min 0,000 mm 0,0 UV-I 0 W/m 14,7 C 15,2 C 0,0 km/h (0 Bft) 97,87 %
18.07.2016 05:24 15,2 C 97 % 1019,5 hPa 0,0 l/m 0,0 km/h (0 Bft) S-SW 192 0 min 0,000 mm 0,0 UV-I 0 W/m 14,7 C 15,2 C 0,0 km/h (0 Bft) 100,00 %
18.07.2016 05:26 15,2 C 97 % 1019,5 hPa 0,0 l/m 0,0 km/h (0 Bft) S-SW 192 0 min 0,000 mm 0,0 UV-I 0 W/m 14,7 C 15,2 C 0,0 km/h (0 Bft) 100,00 %
18.07.2016 05:28 15,2 C 97 % 1019,5 hPa 0,0 l/m 0,0 km/h (0 Bft) S-SW 192 0 min 0,000 mm 0,0 UV-I 4 W/m 14,7 C 15,2 C 0,0 km/h (0 Bft) 100,00 %
18.07.2016 05:30 15,2 C 97 % 1019,5 hPa 0,0 l/m 0,0 km/h (0 Bft) S-SW 192 0 min 0,000 mm 0,0 UV-I 5 W/m 14,7 C 15,2 C 0,0 km/h (0 Bft) 98,00 %
18.07.2016 05:32 15,2 C 97 % 1019,5 hPa 0,0 l/m 0,0 km/h (0 Bft) S-SW 192 0 min 0,000 mm 0,0 UV-I 5 W/m 14,7 C 15,2 C 0,0 km/h (0 Bft) 97,87 %
18.07.2016 05:34 15,2 C 97 % 1019,6 hPa 0,0 l/m 0,0 km/h (0 Bft) S-SW 192 0 min 0,000 mm 0,0 UV-I 5 W/m 14,7 C 15,2 C 0,0 km/h (0 Bft) 100,00 %
18.07.2016 05:36 15,2 C 97 % 1019,6 hPa 0,0 l/m 0,0 km/h (0 Bft) S-SW 192 0 min 0,000 mm 0,0 UV-I 5 W/m 14,7 C 15,2 C 0,0 km/h (0 Bft) 100,00 %
18.07.2016 05:38 15,2 C 97 % 1019,6 hPa 0,0 l/m 0,2 km/h (0 Bft) S-SW 192 0 min 0,000 mm 0,0 UV-I 6 W/m 14,7 C 15,2 C 1,6 km/h (1 Bft) 100,00 %
18.07.2016 05:40 15,2 C 97 % 1019,6 hPa 0,0 l/m 2,5 km/h (1 Bft) S-SW 192 0 min 0,000 mm 0,0 UV-I 7 W/m 14,7 C 15,2 C 3,2 km/h (1 Bft) 100,00 %
18.07.2016 05:42 15,3 C 98 % 1019,7 hPa 0,0 l/m 0,1 km/h (0 Bft) S-SW 192 0 min 0,000 mm 0,0 UV-I 7 W/m 15,0 C 15,3 C 1,6 km/h (1 Bft) 100,00 %
18.07.2016 05:44 15,3 C 98 % 1019,7 hPa 0,0 l/m 0,0 km/h (0 Bft) S-SW 192 0 min 0,000 mm 0,0 UV-I 8 W/m 15,0 C 15,3 C 1,6 km/h (1 Bft) 97,87 %
18.07.2016 05:46 15,3 C 98 % 1019,8 hPa 0,0 l/m 0,0 km/h (0 Bft) S-SW 192 0 min 0,000 mm 0,0 UV-I 10 W/m 15,0 C 15,3 C 0,0 km/h (0 Bft) 100,00 %
18.07.2016 05:48 15,3 C 98 % 1019,8 hPa 0,0 l/m 0,0 km/h (0 Bft) S-SW 192 0 min 0,000 mm 0,0 UV-I 11 W/m 15,0 C 15,3 C 0,0 km/h (0 Bft) 97,87 %
18.07.2016 05:50 15,3 C 98 % 1019,8 hPa 0,0 l/m 0,0 km/h (0 Bft) S-SW 192 0 min 0,000 mm 0,0 UV-I 11 W/m 15,0 C 15,3 C 0,0 km/h (0 Bft) 98,00 %
18.07.2016 05:52 15,3 C 97 % 1019,8 hPa 0,0 l/m 0,0 km/h (0 Bft) S-SW 192 0 min 0,000 mm 0,0 UV-I 12 W/m 14,8 C 15,3 C 0,0 km/h (0 Bft) 95,74 %
18.07.2016 05:54 15,3 C 97 % 1019,8 hPa 0,0 l/m 0,0 km/h (0 Bft) S-SW 192 0 min 0,000 mm 0,0 UV-I 13 W/m 14,8 C 15,3 C 0,0 km/h (0 Bft) 95,74 %
18.07.2016 05:56 15,3 C 98 % 1019,8 hPa 0,0 l/m 0,0 km/h (0 Bft) S-SW 192 0 min 0,000 mm 0,0 UV-I 14 W/m 15,0 C 15,3 C 0,0 km/h (0 Bft) 100,00 %
18.07.2016 05:58 15,3 C 98 % 1019,8 hPa 0,0 l/m 0,0 km/h (0 Bft) S-SW 192 0 min 0,000 mm 0,0 UV-I 18 W/m 15,0 C 15,3 C 0,0 km/h (0 Bft) 97,87 %
18.07.2016 06:00 15,3 C 98 % 1019,8 hPa 0,0 l/m 0,0 km/h (0 Bft) S-SW 192 0 min 0,000 mm 0,0 UV-I 19 W/m 15,0 C 15,3 C 0,0 km/h (0 Bft) 97,87 %
18.07.2016 06:02 15,3 C 98 % 1019,8 hPa 0,0 l/m 1,5 km/h (1 Bft) S-SW 192 0 min 0,000 mm 0,0 UV-I 21 W/m 15,0 C 15,3 C 3,2 km/h (1 Bft) 95,83 %
18.07.2016 06:04 15,3 C 98 % 1019,8 hPa 0,0 l/m 1,0 km/h (0 Bft) S-SW 192 0 min 0,000 mm 0,0 UV-I 23 W/m 15,0 C 15,3 C 3,2 km/h (1 Bft) 97,87 %
18.07.2016 06:06 15,4 C 98 % 1019,8 hPa 0,0 l/m 0,6 km/h (0 Bft) S-SW 192 0 min 0,000 mm 0,0 UV-I 23 W/m 15,1 C 15,4 C 3,2 km/h (1 Bft) 97,87 %
18.07.2016 06:08 15,4 C 98 % 1019,8 hPa 0,0 l/m 1,3 km/h (1 Bft) S-SW 192 0 min 0,000 mm 0,0 UV-I 23 W/m 15,1 C 15,4 C 3,2 km/h (1 Bft) 97,87 %
18.07.2016 06:10 15,4 C 98 % 1019,7 hPa 0,0 l/m 1,9 km/h (1 Bft) S-SW 192 0 min 0,000 mm 0,0 UV-I 23 W/m 15,1 C 15,4 C 4,8 km/h (1 Bft) 100,00 %
18.07.2016 06:12 15,4 C 98 % 1019,8 hPa 0,0 l/m 2,3 km/h (1 Bft) S-SW 192 0 min 0,000 mm 0,0 UV-I 25 W/m 15,1 C 15,4 C 4,8 km/h (1 Bft) 97,87 %
18.07.2016 06:14 15,4 C 98 % 1019,8 hPa 0,0 l/m 1,9 km/h (1 Bft) S-SW 192 0 min 0,000 mm 0,0 UV-I 25 W/m 15,1 C 15,4 C 3,2 km/h (1 Bft) 100,00 %
18.07.2016 06:16 15,4 C 98 % 1019,8 hPa 0,0 l/m 3,6 km/h (1 Bft) SW 214 0 min 0,000 mm 0,0 UV-I 25 W/m 15,1 C 15,4 C 6,4 km/h (2 Bft) 100,00 %
18.07.2016 06:18 15,4 C 98 % 1019,8 hPa 0,0 l/m 5,0 km/h (1 Bft) SW 215 0 min 0,000 mm 0,0 UV-I 25 W/m 15,1 C 15,4 C 8,0 km/h (2 Bft) 97,87 %
18.07.2016 06:20 15,4 C 97 % 1019,9 hPa 0,0 l/m 5,5 km/h (1 Bft) SW 234 0 min 0,000 mm 0,0 UV-I 25 W/m 14,9 C 15,4 C 8,0 km/h (2 Bft) 95,74 %
18.07.2016 06:22 15,4 C 97 % 1019,8 hPa 0,0 l/m 4,7 km/h (1 Bft) S-SW 213 0 min 0,000 mm 0,0 UV-I 25 W/m 14,9 C 15,4 C 8,0 km/h (2 Bft) 100,00 %
18.07.2016 06:24 15,4 C 97 % 1019,9 hPa 0,0 l/m 5,3 km/h (1 Bft) S-SW 198 0 min 0,000 mm 0,0 UV-I 26 W/m 14,9 C 15,4 C 8,0 km/h (2 Bft) 100,00 %
18.07.2016 06:26 15,4 C 97 % 1019,9 hPa 0,0 l/m 6,9 km/h (2 Bft) S-SW 194 0 min 0,000 mm 0,0 UV-I 28 W/m 14,9 C 15,1 C 11,3 km/h (2 Bft) 100,00 %
18.07.2016 06:28 15,4 C 97 % 1019,8 hPa 0,0 l/m 7,9 km/h (2 Bft) S-SW 205 0 min 0,000 mm 0,0 UV-I 34 W/m 14,9 C 14,6 C 11,3 km/h (2 Bft) 100,00 %
18.07.2016 06:30 15,5 C 97 % 1019,8 hPa 0,0 l/m 7,1 km/h (2 Bft) SW 217 0 min 0,000 mm 0,0 UV-I 38 W/m 15,0 C 15,1 C 9,7 km/h (2 Bft) 100,00 %
18.07.2016 06:32 15,5 C 97 % 1019,8 hPa 0,0 l/m 5,3 km/h (1 Bft) S-SW 211 0 min 0,000 mm 0,0 UV-I 41 W/m 15,0 C 15,5 C 9,7 km/h (2 Bft) 97,87 %
18.07.2016 06:34 15,6 C 97 % 1019,8 hPa 0,0 l/m 5,8 km/h (2 Bft) SW 229 0 min 0,000 mm 0,0 UV-I 44 W/m 15,1 C 15,6 C 8,0 km/h (2 Bft) 100,00 %
18.07.2016 06:36 15,6 C 97 % 1019,9 hPa 0,0 l/m 3,6 km/h (1 Bft) SW 229 0 min 0,000 mm 0,0 UV-I 43 W/m 15,1 C 15,6 C 6,4 km/h (2 Bft) 100,00 %
18.07.2016 06:38 15,6 C 97 % 1019,9 hPa 0,0 l/m 5,5 km/h (1 Bft) SW 234 0 min 0,000 mm 0,0 UV-I 40 W/m 15,1 C 15,6 C 8,0 km/h (2 Bft) 100,00 %
18.07.2016 06:40 15,7 C 97 % 1019,9 hPa 0,0 l/m 4,0 km/h (1 Bft) S-SW 209 0 min 0,000 mm 0,0 UV-I 40 W/m 15,2 C 15,7 C 6,4 km/h (2 Bft) 100,00 %
18.07.2016 06:42 15,7 C 97 % 1019,9 hPa 0,0 l/m 3,5 km/h (1 Bft) S-SW 207 0 min 0,000 mm 0,0 UV-I 42 W/m 15,2 C 15,7 C 4,8 km/h (1 Bft) 100,00 %
18.07.2016 06:44 15,7 C 97 % 1019,9 hPa 0,0 l/m 4,5 km/h (1 Bft) S-SW 199 0 min 0,000 mm 0,0 UV-I 45 W/m 15,2 C 15,7 C 6,4 km/h (2 Bft) 97,87 %
18.07.2016 06:46 15,7 C 97 % 1019,9 hPa 0,0 l/m 4,8 km/h (1 Bft) S-SW 199 0 min 0,000 mm 0,0 UV-I 46 W/m 15,2 C 15,7 C 6,4 km/h (2 Bft) 97,87 %
18.07.2016 06:48 15,7 C 97 % 1019,9 hPa 0,0 l/m 4,5 km/h (1 Bft) S 186 0 min 0,000 mm 0,0 UV-I 47 W/m 15,2 C 15,7 C 6,4 km/h (2 Bft) 97,87 %
18.07.2016 06:50 15,7 C 97 % 1019,9 hPa 0,0 l/m 3,6 km/h (1 Bft) SW 234 0 min 0,000 mm 0,0 UV-I 44 W/m 15,2 C 15,7 C 6,4 km/h (2 Bft) 98,00 %
18.07.2016 06:52 15,8 C 96 % 1019,9 hPa 0,0 l/m 2,5 km/h (1 Bft) SW 234 0 min 0,000 mm 0,0 UV-I 46 W/m 15,2 C 15,8 C 4,8 km/h (1 Bft) 95,74 %
18.07.2016 06:54 15,8 C 96 % 1020,0 hPa 0,0 l/m 2,8 km/h (1 Bft) SW 234 0 min 0,000 mm 0,0 UV-I 46 W/m 15,2 C 15,8 C 4,8 km/h (1 Bft) 97,87 %
18.07.2016 06:56 15,8 C 96 % 1019,9 hPa 0,0 l/m 1,2 km/h (1 Bft) SW 234 0 min 0,000 mm 0,0 UV-I 44 W/m 15,2 C 15,8 C 4,8 km/h (1 Bft) 95,74 %
18.07.2016 06:58 15,8 C 96 % 1019,9 hPa 0,0 l/m 2,7 km/h (1 Bft) SW 234 0 min 0,000 mm 0,0 UV-I 47 W/m 15,2 C 15,8 C 4,8 km/h (1 Bft) 97,87 %
18.07.2016 07:00 15,9 C 96 % 1019,9 hPa 0,0 l/m 2,0 km/h (1 Bft) SW 234 0 min 0,025 mm 0,0 UV-I 54 W/m 15,3 C 15,9 C 4,8 km/h (1 Bft) 95,74 %
18.07.2016 07:02 15,9 C 96 % 1019,9 hPa 0,0 l/m 1,7 km/h (1 Bft) SW 234 0 min 0,000 mm 0,0 UV-I 63 W/m 15,3 C 15,9 C 3,2 km/h (1 Bft) 94,87 %
18.07.2016 07:04 15,9 C 96 % 1019,9 hPa 0,0 l/m 1,7 km/h (1 Bft) SW 234 0 min 0,000 mm 0,0 UV-I 64 W/m 15,3 C 15,9 C 3,2 km/h (1 Bft) 93,62 %
18.07.2016 07:06 16,0 C 96 % 1020,0 hPa 0,0 l/m 2,1 km/h (1 Bft) SW 234 0 min 0,000 mm 0,0 UV-I 60 W/m 15,4 C 16,0 C 3,2 km/h (1 Bft) 97,87 %
18.07.2016 07:08 16,1 C 96 % 1020,0 hPa 0,0 l/m 1,0 km/h (0 Bft) SW 234 0 min 0,000 mm 0,0 UV-I 59 W/m 15,5 C 16,1 C 1,6 km/h (1 Bft) 95,74 %
18.07.2016 07:10 16,1 C 96 % 1019,9 hPa 0,0 l/m 0,9 km/h (0 Bft) SW 234 0 min 0,000 mm 0,0 UV-I 61 W/m 15,5 C 16,1 C 3,2 km/h (1 Bft) 97,87 %
18.07.2016 07:12 16,1 C 96 % 1020,0 hPa 0,0 l/m 1,7 km/h (1 Bft) SW 234 0 min 0,000 mm 0,0 UV-I 63 W/m 15,5 C 16,1 C 3,2 km/h (1 Bft) 93,88 %
18.07.2016 07:14 16,2 C 96 % 1020,0 hPa 0,0 l/m 2,8 km/h (1 Bft) SW 234 0 min 0,000 mm 0,0 UV-I 64 W/m 15,6 C 16,2 C 4,8 km/h (1 Bft) 95,74 %
18.07.2016 07:16 16,2 C 96 % 1020,0 hPa 0,0 l/m 3,4 km/h (1 Bft) SW 234 0 min 0,000 mm 0,0 UV-I 67 W/m 15,6 C 16,2 C 6,4 km/h (2 Bft) 98,00 %
18.07.2016 07:18 16,2 C 96 % 1020,0 hPa 0,0 l/m 2,8 km/h (1 Bft) SW 229 0 min 0,000 mm 0,0 UV-I 69 W/m 15,6 C 16,2 C 4,8 km/h (1 Bft) 97,87 %
18.07.2016 07:20 16,2 C 96 % 1019,9 hPa 0,0 l/m 3,6 km/h (1 Bft) SW 227 0 min 0,000 mm 0,0 UV-I 78 W/m 15,6 C 16,2 C 4,8 km/h (1 Bft) 100,00 %
18.07.2016 07:22 16,3 C 96 % 1020,0 hPa 0,0 l/m 2,6 km/h (1 Bft) SW 227 0 min 0,000 mm 0,0 UV-I 100 W/m 15,7 C 16,3 C 4,8 km/h (1 Bft) 95,74 %
18.07.2016 07:24 16,3 C 96 % 1020,0 hPa 0,0 l/m 2,0 km/h (1 Bft) SW 227 0 min 0,000 mm 0,0 UV-I 119 W/m 15,7 C 16,3 C 4,8 km/h (1 Bft) 95,74 %
18.07.2016 07:26 16,3 C 96 % 1020,0 hPa 0,0 l/m 2,9 km/h (1 Bft) SW 227 0 min 0,000 mm 0,0 UV-I 126 W/m 15,7 C 16,3 C 4,8 km/h (1 Bft) 100,00 %
18.07.2016 07:28 16,4 C 96 % 1020,0 hPa 0,0 l/m 3,1 km/h (1 Bft) SW 230 0 min 0,000 mm 0,0 UV-I 122 W/m 15,8 C 16,4 C 4,8 km/h (1 Bft) 97,87 %
18.07.2016 07:30 16,5 C 96 % 1020,0 hPa 0,0 l/m 2,0 km/h (1 Bft) SW 230 0 min 0,000 mm 0,0 UV-I 115 W/m 15,9 C 16,5 C 3,2 km/h (1 Bft) 95,74 %
18.07.2016 07:32 16,6 C 96 % 1020,0 hPa 0,0 l/m 1,8 km/h (1 Bft) SW 230 0 min 0,000 mm 0,0 UV-I 117 W/m 16,0 C 16,6 C 3,2 km/h (1 Bft) 95,74 %
18.07.2016 07:34 16,6 C 96 % 1020,0 hPa 0,0 l/m 3,6 km/h (1 Bft) SW 230 0 min 0,000 mm 0,0 UV-I 122 W/m 16,0 C 16,6 C 4,8 km/h (1 Bft) 97,37 %
18.07.2016 07:36 16,6 C 95 % 1020,1 hPa 0,0 l/m 3,6 km/h (1 Bft) W 262 0 min 0,000 mm 0,0 UV-I 127 W/m 15,8 C 16,6 C 6,4 km/h (2 Bft) 95,74 %
18.07.2016 07:38 16,7 C 95 % 1020,1 hPa 0,0 l/m 2,5 km/h (1 Bft) W 262 0 min 0,000 mm 0,0 UV-I 116 W/m 15,9 C 16,7 C 4,8 km/h (1 Bft) 97,87 %
18.07.2016 07:40 16,7 C 95 % 1020,1 hPa 0,0 l/m 1,9 km/h (1 Bft) W 262 0 min 0,000 mm 0,0 UV-I 88 W/m 15,9 C 16,7 C 4,8 km/h (1 Bft) 100,00 %
18.07.2016 07:42 16,7 C 95 % 1020,1 hPa 0,0 l/m 2,4 km/h (1 Bft) W 262 0 min 0,000 mm 0,0 UV-I 62 W/m 15,9 C 16,7 C 4,8 km/h (1 Bft) 97,87 %
18.07.2016 07:44 16,8 C 95 % 1020,1 hPa 0,0 l/m 0,6 km/h (0 Bft) W 262 0 min 0,000 mm 0,0 UV-I 45 W/m 16,0 C 16,8 C 3,2 km/h (1 Bft) 100,00 %
18.07.2016 07:46 16,8 C 95 % 1020,0 hPa 0,0 l/m 1,7 km/h (1 Bft) W 262 0 min 0,000 mm 0,0 UV-I 38 W/m 16,0 C 16,8 C 4,8 km/h (1 Bft) 98,00 %
18.07.2016 07:48 16,7 C 95 % 1020,1 hPa 0,0 l/m 1,4 km/h (1 Bft) W 262 0 min 0,000 mm 0,0 UV-I 34 W/m 15,9 C 16,7 C 3,2 km/h (1 Bft) 100,00 %
18.07.2016 07:50 16,8 C 95 % 1020,1 hPa 0,0 l/m 2,4 km/h (1 Bft) W-SW 253 0 min 0,000 mm 0,0 UV-I 31 W/m 16,0 C 16,8 C 4,8 km/h (1 Bft) 100,00 %
18.07.2016 07:52 16,8 C 95 % 1020,1 hPa 0,0 l/m 1,4 km/h (1 Bft) W-SW 253 0 min 0,000 mm 0,0 UV-I 30 W/m 16,0 C 16,8 C 3,2 km/h (1 Bft) 100,00 %
18.07.2016 07:54 16,8 C 95 % 1020,1 hPa 0,0 l/m 1,2 km/h (1 Bft) W-SW 253 0 min 0,000 mm 0,0 UV-I 30 W/m 16,0 C 16,8 C 3,2 km/h (1 Bft) 97,87 %
18.07.2016 07:56 16,8 C 95 % 1020,2 hPa 0,0 l/m 0,3 km/h (0 Bft) W-SW 253 0 min 0,000 mm 0,0 UV-I 32 W/m 16,0 C 16,8 C 1,6 km/h (1 Bft) 100,00 %
18.07.2016 07:58 16,8 C 95 % 1020,2 hPa 0,0 l/m 0,6 km/h (0 Bft) W-SW 253 0 min 0,000 mm 0,0 UV-I 35 W/m 16,0 C 16,8 C 3,2 km/h (1 Bft) 100,00 %
18.07.2016 08:00 16,7 C 95 % 1020,2 hPa 0,0 l/m 0,8 km/h (0 Bft) W-SW 253 0 min 0,051 mm 0,0 UV-I 41 W/m 15,9 C 16,7 C 3,2 km/h (1 Bft) 100,00 %
18.07.2016 08:02 16,7 C 95 % 1020,2 hPa 0,0 l/m 0,0 km/h (0 Bft) W-SW 253 0 min 0,000 mm 0,0 UV-I 50 W/m 15,9 C 16,7 C 0,0 km/h (0 Bft) 100,00 %
18.07.2016 08:04 16,7 C 95 % 1020,2 hPa 0,0 l/m 0,0 km/h (0 Bft) W-SW 253 0 min 0,000 mm 0,0 UV-I 59 W/m 15,9 C 16,7 C 0,0 km/h (0 Bft) 100,00 %
18.07.2016 08:06 16,7 C 95 % 1020,2 hPa 0,0 l/m 0,8 km/h (0 Bft) W-SW 253 0 min 0,000 mm 0,0 UV-I 64 W/m 15,9 C 16,7 C 1,6 km/h (1 Bft) 100,00 %
18.07.2016 08:08 16,7 C 95 % 1020,3 hPa 0,0 l/m 0,8 km/h (0 Bft) W-SW 253 0 min 0,000 mm 0,0 UV-I 74 W/m 15,9 C 16,7 C 3,2 km/h (1 Bft) 100,00 %
18.07.2016 08:10 16,7 C 95 % 1020,2 hPa 0,0 l/m 0,3 km/h (0 Bft) W-SW 253 0 min 0,000 mm 0,1 UV-I 92 W/m 15,9 C 16,7 C 1,6 km/h (1 Bft) 97,87 %
18.07.2016 08:12 16,8 C 95 % 1020,2 hPa 0,0 l/m 0,3 km/h (0 Bft) W-SW 253 0 min 0,000 mm 0,5 UV-I 113 W/m 16,0 C 16,8 C 1,6 km/h (1 Bft) 100,00 %
18.07.2016 08:14 16,8 C 95 % 1020,1 hPa 0,0 l/m 2,5 km/h (1 Bft) W-SW 253 0 min 0,000 mm 0,6 UV-I 129 W/m 16,0 C 16,8 C 4,8 km/h (1 Bft) 100,00 %
18.07.2016 08:16 16,9 C 95 % 1020,1 hPa 0,0 l/m 1,3 km/h (1 Bft) W-SW 253 0 min 0,000 mm 0,6 UV-I 135 W/m 16,1 C 16,9 C 3,2 km/h (1 Bft) 97,87 %
18.07.2016 08:18 17,0 C 95 % 1020,1 hPa 0,0 l/m 0,6 km/h (0 Bft) W-SW 253 0 min 0,000 mm 0,7 UV-I 140 W/m 16,2 C 17,0 C 3,2 km/h (1 Bft) 97,87 %
18.07.2016 08:20 17,0 C 94 % 1020,1 hPa 0,0 l/m 0,3 km/h (0 Bft) W-SW 253 0 min 0,000 mm 0,7 UV-I 153 W/m 16,0 C 17,0 C 1,6 km/h (1 Bft) 97,14 %
18.07.2016 08:22 17,1 C 95 % 1020,1 hPa 0,0 l/m 0,1 km/h (0 Bft) W-SW 253 0 min 0,000 mm 0,8 UV-I 163 W/m 16,3 C 17,1 C 1,6 km/h (1 Bft) 100,00 %
18.07.2016 08:24 17,2 C 94 % 1020,1 hPa 0,0 l/m 1,4 km/h (1 Bft) W-SW 253 0 min 0,000 mm 0,8 UV-I 170 W/m 16,2 C 17,2 C 3,2 km/h (1 Bft) 100,00 %
18.07.2016 08:26 17,3 C 94 % 1020,1 hPa 0,0 l/m 3,0 km/h (1 Bft) SW 227 0 min 0,000 mm 0,8 UV-I 167 W/m 16,3 C 17,3 C 4,8 km/h (1 Bft) 100,00 %
18.07.2016 08:28 17,3 C 94 % 1020,1 hPa 0,0 l/m 2,4 km/h (1 Bft) SW 227 0 min 0,000 mm 0,8 UV-I 157 W/m 16,3 C 17,3 C 4,8 km/h (1 Bft) 97,87 %
18.07.2016 08:30 17,3 C 94 % 1020,1 hPa 0,0 l/m 2,4 km/h (1 Bft) SW 225 0 min 0,000 mm 0,9 UV-I 159 W/m 16,3 C 17,3 C 4,8 km/h (1 Bft) 100,00 %
18.07.2016 08:32 17,4 C 94 % 1020,1 hPa 0,0 l/m 2,0 km/h (1 Bft) SW 224 0 min 0,000 mm 0,9 UV-I 164 W/m 16,4 C 17,4 C 4,8 km/h (1 Bft) 98,00 %
18.07.2016 08:34 17,4 C 94 % 1020,0 hPa 0,0 l/m 3,1 km/h (1 Bft) SW 221 0 min 0,000 mm 0,9 UV-I 168 W/m 16,4 C 17,4 C 4,8 km/h (1 Bft) 100,00 %
18.07.2016 08:36 17,5 C 94 % 1020,1 hPa 0,0 l/m 2,8 km/h (1 Bft) S-SW 209 0 min 0,000 mm 0,9 UV-I 164 W/m 16,5 C 17,5 C 4,8 km/h (1 Bft) 100,00 %
18.07.2016 08:38 17,6 C 93 % 1020,0 hPa 0,0 l/m 3,0 km/h (1 Bft) S-SW 205 0 min 0,000 mm 0,8 UV-I 156 W/m 16,5 C 17,6 C 4,8 km/h (1 Bft) 96,00 %
18.07.2016 08:40 17,6 C 94 % 1020,1 hPa 0,0 l/m 2,1 km/h (1 Bft) S-SW 205 0 min 0,000 mm 0,9 UV-I 151 W/m 16,6 C 17,6 C 4,8 km/h (1 Bft) 97,87 %
18.07.2016 08:42 17,7 C 94 % 1020,1 hPa 0,0 l/m 3,4 km/h (1 Bft) S-SW 205 0 min 0,000 mm 0,9 UV-I 148 W/m 16,7 C 17,7 C 6,4 km/h (2 Bft) 95,74 %
18.07.2016 08:44 17,7 C 93 % 1020,1 hPa 0,0 l/m 4,0 km/h (1 Bft) S-SW 207 0 min 0,000 mm 0,9 UV-I 150 W/m 16,6 C 17,7 C 6,4 km/h (2 Bft) 95,74 %
18.07.2016 08:46 17,7 C 93 % 1020,0 hPa 0,0 l/m 4,0 km/h (1 Bft) S-SW 208 0 min 0,000 mm 1,0 UV-I 157 W/m 16,6 C 17,7 C 6,4 km/h (2 Bft) 95,74 %
18.07.2016 08:48 17,7 C 93 % 1020,1 hPa 0,0 l/m 3,8 km/h (1 Bft) S-SW 196 0 min 0,000 mm 1,1 UV-I 169 W/m 16,6 C 17,7 C 6,4 km/h (2 Bft) 92,11 %
18.07.2016 08:50 17,8 C 93 % 1020,1 hPa 0,0 l/m 4,6 km/h (1 Bft) SW 229 0 min 0,000 mm 1,1 UV-I 186 W/m 16,7 C 17,8 C 6,4 km/h (2 Bft) 95,74 %
18.07.2016 08:52 17,8 C 93 % 1020,1 hPa 0,0 l/m 3,8 km/h (1 Bft) SW 229 0 min 0,000 mm 1,0 UV-I 170 W/m 16,7 C 17,8 C 6,4 km/h (2 Bft) 98,00 %
18.07.2016 08:54 17,9 C 92 % 1020,1 hPa 0,0 l/m 3,2 km/h (1 Bft) S-SW 200 0 min 0,000 mm 0,9 UV-I 143 W/m 16,6 C 17,9 C 6,4 km/h (2 Bft) 97,87 %
18.07.2016 08:56 17,9 C 92 % 1020,2 hPa 0,0 l/m 2,3 km/h (1 Bft) S-SW 205 0 min 0,000 mm 1,0 UV-I 152 W/m 16,6 C 17,9 C 4,8 km/h (1 Bft) 97,87 %
18.07.2016 08:58 18,0 C 93 % 1020,1 hPa 0,0 l/m 2,6 km/h (1 Bft) S-SW 205 0 min 0,000 mm 1,1 UV-I 162 W/m 16,8 C 18,0 C 3,2 km/h (1 Bft) 94,00 %
18.07.2016 09:00 18,1 C 92 % 1020,1 hPa 0,0 l/m 4,2 km/h (1 Bft) SW 234 0 min 0,076 mm 1,2 UV-I 171 W/m 16,8 C 18,1 C 9,7 km/h (2 Bft) 98,00 %
18.07.2016 09:02 18,1 C 91 % 1020,1 hPa 0,0 l/m 4,1 km/h (1 Bft) SW 225 0 min 0,000 mm 1,2 UV-I 175 W/m 16,6 C 18,1 C 8,0 km/h (2 Bft) 95,74 %
18.07.2016 09:04 18,2 C 91 % 1020,1 hPa 0,0 l/m 2,4 km/h (1 Bft) SW 225 0 min 0,000 mm 1,3 UV-I 189 W/m 16,7 C 18,2 C 4,8 km/h (1 Bft) 97,87 %
18.07.2016 09:06 18,2 C 91 % 1020,1 hPa 0,0 l/m 3,4 km/h (1 Bft) SW 227 0 min 0,000 mm 1,4 UV-I 213 W/m 16,7 C 18,2 C 6,4 km/h (2 Bft) 97,14 %
18.07.2016 09:08 18,2 C 90 % 1020,1 hPa 0,0 l/m 3,4 km/h (1 Bft) SW 217 0 min 0,000 mm 1,4 UV-I 231 W/m 16,5 C 18,2 C 6,4 km/h (2 Bft) 96,43 %
18.07.2016 09:10 18,4 C 91 % 1020,1 hPa 0,0 l/m 4,6 km/h (1 Bft) SW 235 0 min 0,000 mm 1,4 UV-I 232 W/m 16,9 C 18,4 C 6,4 km/h (2 Bft) 98,00 %
18.07.2016 09:12 18,4 C 89 % 1020,0 hPa 0,0 l/m 4,5 km/h (1 Bft) W-SW 255 0 min 0,000 mm 1,4 UV-I 240 W/m 16,6 C 18,4 C 6,4 km/h (2 Bft) 97,44 %
18.07.2016 09:14 18,4 C 90 % 1020,1 hPa 0,0 l/m 4,7 km/h (1 Bft) SW 236 0 min 0,000 mm 1,6 UV-I 267 W/m 16,7 C 18,4 C 11,3 km/h (2 Bft) 95,74 %
18.07.2016 09:16 18,6 C 89 % 1020,0 hPa 0,0 l/m 6,2 km/h (2 Bft) SW 235 0 min 0,000 mm 1,5 UV-I 292 W/m 16,7 C 18,6 C 9,7 km/h (2 Bft) 95,74 %
18.07.2016 09:18 18,6 C 88 % 1020,0 hPa 0,0 l/m 3,5 km/h (1 Bft) W-SW 237 0 min 0,000 mm 1,6 UV-I 246 W/m 16,6 C 18,6 C 4,8 km/h (1 Bft) 100,00 %
18.07.2016 09:20 18,7 C 88 % 1020,0 hPa 0,0 l/m 5,4 km/h (1 Bft) W-SW 256 0 min 0,000 mm 1,7 UV-I 289 W/m 16,7 C 18,7 C 11,3 km/h (2 Bft) 100,00 %
18.07.2016 09:22 18,7 C 87 % 1020,0 hPa 0,0 l/m 5,4 km/h (1 Bft) W 276 0 min 0,000 mm 1,7 UV-I 275 W/m 16,5 C 18,7 C 8,0 km/h (2 Bft) 97,87 %
18.07.2016 09:24 18,8 C 89 % 1020,0 hPa 0,0 l/m 4,4 km/h (1 Bft) W-SW 238 0 min 0,000 mm 1,8 UV-I 301 W/m 16,9 C 18,8 C 6,4 km/h (2 Bft) 97,87 %
18.07.2016 09:26 18,9 C 89 % 1020,0 hPa 0,0 l/m 5,5 km/h (1 Bft) W-SW 247 0 min 0,000 mm 2,0 UV-I 331 W/m 17,0 C 18,9 C 8,0 km/h (2 Bft) 100,00 %
18.07.2016 09:28 19,1 C 89 % 1020,1 hPa 0,0 l/m 8,4 km/h (2 Bft) W-SW 251 0 min 0,000 mm 2,1 UV-I 329 W/m 17,2 C 18,2 C 14,5 km/h (3 Bft) 97,87 %
18.07.2016 09:30 19,2 C 87 % 1020,1 hPa 0,0 l/m 5,3 km/h (1 Bft) W-SW 238 0 min 0,000 mm 1,9 UV-I 312 W/m 17,0 C 19,2 C 8,0 km/h (2 Bft) 98,00 %
18.07.2016 09:32 19,2 C 89 % 1020,1 hPa 0,0 l/m 5,5 km/h (1 Bft) SW 223 0 min 0,000 mm 1,9 UV-I 320 W/m 17,3 C 19,2 C 8,0 km/h (2 Bft) 97,87 %
18.07.2016 09:34 19,3 C 88 % 1020,1 hPa 0,0 l/m 5,5 km/h (1 Bft) W-SW 256 2 min 0,000 mm 1,9 UV-I 352 W/m 17,3 C 19,3 C 9,7 km/h (2 Bft) 97,87 %
18.07.2016 09:36 19,3 C 87 % 1020,1 hPa 0,0 l/m 7,2 km/h (2 Bft) W-NW 287 0 min 0,000 mm 1,8 UV-I 332 W/m 17,1 C 19,0 C 11,3 km/h (2 Bft) 97,87 %
18.07.2016 09:38 19,4 C 87 % 1020,0 hPa 0,0 l/m 4,3 km/h (1 Bft) SW 236 0 min 0,000 mm 1,5 UV-I 300 W/m 17,2 C 19,4 C 9,7 km/h (2 Bft) 100,00 %
18.07.2016 09:40 19,4 C 88 % 1020,0 hPa 0,0 l/m 6,7 km/h (2 Bft) SW 227 0 min 0,000 mm 1,4 UV-I 231 W/m 17,4 C 19,3 C 8,0 km/h (2 Bft) 100,00 %
18.07.2016 09:42 19,4 C 87 % 1020,0 hPa 0,0 l/m 8,2 km/h (2 Bft) W-SW 248 0 min 0,000 mm 1,4 UV-I 214 W/m 17,2 C 18,6 C 14,5 km/h (3 Bft) 100,00 %
18.07.2016 09:44 19,4 C 87 % 1020,0 hPa 0,0 l/m 6,8 km/h (2 Bft) W-SW 248 0 min 0,000 mm 1,5 UV-I 223 W/m 17,2 C 19,2 C 9,7 km/h (2 Bft) 100,00 %
18.07.2016 09:46 19,3 C 86 % 1020,0 hPa 0,0 l/m 8,1 km/h (2 Bft) W 261 0 min 0,000 mm 1,7 UV-I 238 W/m 16,9 C 18,6 C 17,7 km/h (3 Bft) 100,00 %
18.07.2016 09:48 19,3 C 88 % 1020,0 hPa 0,0 l/m 7,9 km/h (2 Bft) W-SW 257 0 min 0,000 mm 1,8 UV-I 247 W/m 17,3 C 18,7 C 12,9 km/h (3 Bft) 100,00 %
18.07.2016 09:50 19,3 C 86 % 1020,1 hPa 0,0 l/m 7,8 km/h (2 Bft) W 262 0 min 0,000 mm 2,2 UV-I 279 W/m 16,9 C 18,7 C 11,3 km/h (2 Bft) 97,87 %
18.07.2016 09:52 19,3 C 88 % 1020,0 hPa 0,0 l/m 9,3 km/h (2 Bft) W-SW 242 0 min 0,000 mm 2,1 UV-I 267 W/m 17,3 C 18,1 C 12,9 km/h (3 Bft) 100,00 %
18.07.2016 09:54 19,3 C 86 % 1020,0 hPa 0,0 l/m 9,3 km/h (2 Bft) W-SW 248 0 min 0,000 mm 2,3 UV-I 291 W/m 16,9 C 18,1 C 16,1 km/h (3 Bft) 100,00 %
18.07.2016 09:56 19,5 C 86 % 1020,0 hPa 0,0 l/m 10,2 km/h (2 Bft) SW 225 2 min 0,000 mm 3,4 UV-I 674 W/m 17,1 C 18,0 C 16,1 km/h (3 Bft) 97,87 %
18.07.2016 09:58 19,8 C 87 % 1020,1 hPa 0,0 l/m 6,6 km/h (2 Bft) W 260 2 min 0,000 mm 3,0 UV-I 840 W/m 17,6 C 19,7 C 12,9 km/h (3 Bft) 97,87 %
18.07.2016 10:00 19,9 C 86 % 1020,1 hPa 0,0 l/m 10,9 km/h (2 Bft) W-SW 242 0 min 0,178 mm 2,1 UV-I 338 W/m 17,5 C 18,2 C 17,7 km/h (3 Bft) 100,00 %
18.07.2016 10:02 19,8 C 85 % 1020,1 hPa 0,0 l/m 5,1 km/h (1 Bft) W-NW 286 0 min 0,000 mm 1,7 UV-I 262 W/m 17,2 C 19,8 C 6,4 km/h (2 Bft) 100,00 %
18.07.2016 10:04 19,8 C 87 % 1020,1 hPa 0,0 l/m 4,5 km/h (1 Bft) W 262 0 min 0,000 mm 1,7 UV-I 216 W/m 17,6 C 19,8 C 9,7 km/h (2 Bft) 100,00 %
18.07.2016 10:06 19,7 C 88 % 1020,1 hPa 0,0 l/m 8,3 km/h (2 Bft) W-SW 254 0 min 0,000 mm 1,9 UV-I 222 W/m 17,7 C 18,9 C 19,3 km/h (3 Bft) 100,00 %
18.07.2016 10:08 19,5 C 87 % 1020,1 hPa 0,0 l/m 13,8 km/h (3 Bft) W-SW 257 0 min 0,000 mm 2,2 UV-I 258 W/m 17,3 C 17,0 C 22,5 km/h (4 Bft) 97,87 %
18.07.2016 10:10 19,4 C 87 % 1020,1 hPa 0,0 l/m 13,0 km/h (3 Bft) SW 234 0 min 0,000 mm 2,3 UV-I 272 W/m 17,2 C 17,1 C 17,7 km/h (3 Bft) 100,00 %
18.07.2016 10:12 19,4 C 89 % 1020,1 hPa 0,0 l/m 11,7 km/h (2 Bft) W-SW 255 0 min 0,000 mm 2,5 UV-I 283 W/m 17,5 C 17,4 C 24,1 km/h (4 Bft) 97,22 %
18.07.2016 10:14 19,4 C 88 % 1020,1 hPa 0,0 l/m 10,9 km/h (2 Bft) W-SW 257 0 min 0,000 mm 3,2 UV-I 368 W/m 17,4 C 17,7 C 16,1 km/h (3 Bft) 100,00 %
18.07.2016 10:16 19,6 C 88 % 1020,1 hPa 0,0 l/m 7,6 km/h (2 Bft) W-SW 246 2 min 0,000 mm 3,9 UV-I 717 W/m 17,6 C 19,1 C 14,5 km/h (3 Bft) 95,74 %
18.07.2016 10:18 19,9 C 89 % 1020,1 hPa 0,0 l/m 9,0 km/h (2 Bft) SW 226 2 min 0,000 mm 4,0 UV-I 780 W/m 18,0 C 18,9 C 16,1 km/h (3 Bft) 98,00 %
18.07.2016 10:20 20,2 C 85 % 1020,1 hPa 0,0 l/m 15,8 km/h (3 Bft) W 259 2 min 0,000 mm 3,4 UV-I 653 W/m 17,6 C 17,3 C 27,4 km/h (4 Bft) 100,00 %
18.07.2016 10:22 20,2 C 85 % 1020,1 hPa 0,0 l/m 11,7 km/h (2 Bft) W 267 2 min 0,000 mm 3,1 UV-I 456 W/m 17,6 C 18,3 C 20,9 km/h (4 Bft) 100,00 %
18.07.2016 10:24 20,2 C 85 % 1020,1 hPa 0,0 l/m 9,9 km/h (2 Bft) W 262 2 min 0,000 mm 2,9 UV-I 444 W/m 17,6 C 18,9 C 17,7 km/h (3 Bft) 100,00 %
18.07.2016 10:26 20,2 C 86 % 1020,1 hPa 0,0 l/m 9,3 km/h (2 Bft) W 265 0 min 0,000 mm 2,8 UV-I 396 W/m 17,8 C 19,1 C 14,5 km/h (3 Bft) 97,87 %
18.07.2016 10:28 20,2 C 86 % 1020,2 hPa 0,0 l/m 8,3 km/h (2 Bft) W-SW 240 0 min 0,000 mm 2,7 UV-I 358 W/m 17,8 C 19,4 C 16,1 km/h (3 Bft) 100,00 %
18.07.2016 10:30 20,2 C 85 % 1020,1 hPa 0,0 l/m 8,8 km/h (2 Bft) W 269 0 min 0,000 mm 2,9 UV-I 300 W/m 17,6 C 19,3 C 16,1 km/h (3 Bft) 97,87 %
18.07.2016 10:32 20,1 C 85 % 1020,2 hPa 0,0 l/m 6,6 km/h (2 Bft) SW 225 0 min 0,000 mm 3,0 UV-I 301 W/m 17,5 C 20,0 C 12,9 km/h (3 Bft) 97,87 %
18.07.2016 10:34 20,1 C 86 % 1020,1 hPa 0,0 l/m 5,3 km/h (1 Bft) W-SW 248 0 min 0,000 mm 3,0 UV-I 257 W/m 17,7 C 20,1 C 9,7 km/h (2 Bft) 100,00 %
18.07.2016 10:36 20,1 C 85 % 1020,2 hPa 0,0 l/m 5,8 km/h (2 Bft) W 260 0 min 0,000 mm 3,4 UV-I 291 W/m 17,5 C 20,1 C 14,5 km/h (3 Bft) 98,00 %
18.07.2016 10:38 20,2 C 85 % 1020,2 hPa 0,0 l/m 8,5 km/h (2 Bft) W-SW 245 2 min 0,000 mm 4,6 UV-I 624 W/m 17,6 C 19,4 C 14,5 km/h (3 Bft) 100,00 %
18.07.2016 10:40 20,5 C 86 % 1020,1 hPa 0,0 l/m 6,9 km/h (2 Bft) W 271 2 min 0,000 mm 4,8 UV-I 775 W/m 18,1 C 20,3 C 14,5 km/h (3 Bft) 97,87 %
18.07.2016 10:42 20,8 C 83 % 1020,1 hPa 0,0 l/m 9,4 km/h (2 Bft) W 271 2 min 0,000 mm 5,1 UV-I 845 W/m 17,8 C 19,7 C 14,5 km/h (3 Bft) 97,87 %
18.07.2016 10:44 21,0 C 82 % 1020,1 hPa 0,0 l/m 8,0 km/h (2 Bft) W 267 2 min 0,000 mm 5,2 UV-I 907 W/m 17,8 C 20,4 C 12,9 km/h (3 Bft) 93,62 %
18.07.2016 10:46 21,2 C 84 % 1020,2 hPa 0,0 l/m 5,0 km/h (1 Bft) SW 232 2 min 0,000 mm 4,9 UV-I 887 W/m 18,4 C 21,2 C 9,7 km/h (2 Bft) 97,87 %
18.07.2016 10:48 21,2 C 82 % 1020,1 hPa 0,0 l/m 8,7 km/h (2 Bft) S-SW 195 2 min 0,000 mm 4,4 UV-I 884 W/m 18,0 C 20,4 C 14,5 km/h (3 Bft) 98,00 %
18.07.2016 10:50 21,2 C 84 % 1020,1 hPa 0,0 l/m 11,0 km/h (2 Bft) S-SW 207 2 min 0,000 mm 4,5 UV-I 911 W/m 18,4 C 19,7 C 17,7 km/h (3 Bft) 95,74 %
18.07.2016 10:52 21,1 C 82 % 1020,1 hPa 0,0 l/m 8,6 km/h (2 Bft) S 179 2 min 0,000 mm 4,8 UV-I 815 W/m 17,9 C 20,3 C 14,5 km/h (3 Bft) 97,87 %
18.07.2016 10:54 21,2 C 82 % 1020,2 hPa 0,0 l/m 12,0 km/h (2 Bft) W 274 2 min 0,000 mm 5,0 UV-I 830 W/m 18,0 C 19,4 C 19,3 km/h (3 Bft) 97,87 %
18.07.2016 10:56 21,2 C 81 % 1020,2 hPa 0,0 l/m 9,5 km/h (2 Bft) W-SW 253 2 min 0,000 mm 4,3 UV-I 912 W/m 17,8 C 20,1 C 12,9 km/h (3 Bft) 94,74 %
18.07.2016 10:58 21,2 C 81 % 1020,2 hPa 0,0 l/m 8,2 km/h (2 Bft) SW 223 2 min 0,000 mm 5,4 UV-I 818 W/m 17,8 C 20,5 C 14,5 km/h (3 Bft) 95,74 %
18.07.2016 11:00 21,2 C 79 % 1020,2 hPa 0,0 l/m 12,6 km/h (3 Bft) S 184 2 min 0,330 mm 5,3 UV-I 785 W/m 17,4 C 19,3 C 19,3 km/h (3 Bft) 97,87 %
18.07.2016 11:02 21,2 C 80 % 1020,2 hPa 0,0 l/m 15,1 km/h (3 Bft) S 186 2 min 0,000 mm 5,3 UV-I 765 W/m 17,6 C 18,7 C 20,9 km/h (4 Bft) 95,74 %
18.07.2016 11:04 21,1 C 82 % 1020,2 hPa 0,0 l/m 10,8 km/h (2 Bft) W-SW 242 2 min 0,000 mm 5,3 UV-I 756 W/m 17,9 C 19,6 C 16,1 km/h (3 Bft) 97,87 %
18.07.2016 11:06 21,2 C 81 % 1020,2 hPa 0,0 l/m 6,4 km/h (2 Bft) SW 224 2 min 0,000 mm 5,4 UV-I 743 W/m 17,8 C 21,2 C 9,7 km/h (2 Bft) 93,62 %
18.07.2016 11:08 21,3 C 81 % 1020,2 hPa 0,0 l/m 11,1 km/h (2 Bft) W-SW 243 2 min 0,000 mm 5,5 UV-I 780 W/m 17,9 C 19,8 C 20,9 km/h (4 Bft) 97,87 %
18.07.2016 11:10 21,3 C 80 % 1020,2 hPa 0,0 l/m 15,3 km/h (3 Bft) SW 227 2 min 0,000 mm 5,6 UV-I 784 W/m 17,7 C 18,8 C 19,3 km/h (3 Bft) 97,92 %
18.07.2016 11:12 21,4 C 80 % 1020,1 hPa 0,0 l/m 10,3 km/h (2 Bft) W-SW 246 2 min 0,000 mm 5,6 UV-I 792 W/m 17,8 C 20,1 C 14,5 km/h (3 Bft) 97,87 %
18.07.2016 11:14 21,6 C 80 % 1020,1 hPa 0,0 l/m 9,7 km/h (2 Bft) S-SW 202 2 min 0,000 mm 5,7 UV-I 823 W/m 18,0 C 20,5 C 14,5 km/h (3 Bft) 97,87 %
18.07.2016 11:16 21,7 C 81 % 1020,1 hPa 0,0 l/m 5,5 km/h (1 Bft) SW 221 2 min 0,000 mm 5,7 UV-I 858 W/m 18,3 C 21,7 C 11,3 km/h (2 Bft) 95,74 %
18.07.2016 11:18 21,8 C 82 % 1020,1 hPa 0,0 l/m 8,9 km/h (2 Bft) W-SW 242 2 min 0,000 mm 5,6 UV-I 858 W/m 18,6 C 21,0 C 16,1 km/h (3 Bft) 100,00 %
18.07.2016 11:20 22,1 C 81 % 1020,1 hPa 0,0 l/m 9,0 km/h (2 Bft) W 259 2 min 0,000 mm 5,5 UV-I 864 W/m 18,7 C 21,2 C 14,5 km/h (3 Bft) 96,00 %
18.07.2016 11:22 22,2 C 80 % 1020,0 hPa 0,0 l/m 6,4 km/h (2 Bft) W 279 2 min 0,000 mm 4,9 UV-I 865 W/m 18,6 C 22,2 C 14,5 km/h (3 Bft) 98,00 %
18.07.2016 11:24 22,2 C 81 % 1020,0 hPa 0,0 l/m 8,2 km/h (2 Bft) SW 231 2 min 0,000 mm 4,6 UV-I 865 W/m 18,8 C 21,6 C 12,9 km/h (3 Bft) 100,00 %
18.07.2016 11:26 22,1 C 79 % 1020,0 hPa 0,0 l/m 7,1 km/h (2 Bft) SW 236 0 min 0,000 mm 3,7 UV-I 408 W/m 18,3 C 21,9 C 11,3 km/h (2 Bft) 100,00 %
18.07.2016 11:28 21,9 C 81 % 1020,0 hPa 0,0 l/m 7,4 km/h (2 Bft) S 175 0 min 0,000 mm 4,4 UV-I 380 W/m 18,5 C 21,5 C 12,9 km/h (3 Bft) 100,00 %
18.07.2016 11:30 21,8 C 82 % 1020,0 hPa 0,0 l/m 9,2 km/h (2 Bft) S 172 2 min 0,000 mm 5,7 UV-I 603 W/m 18,6 C 20,9 C 19,3 km/h (3 Bft) 97,87 %
18.07.2016 11:32 22,0 C 83 % 1020,0 hPa 0,0 l/m 8,9 km/h (2 Bft) S 173 2 min 0,000 mm 6,1 UV-I 871 W/m 19,0 C 21,2 C 14,5 km/h (3 Bft) 100,00 %
18.07.2016 11:34 22,1 C 82 % 1020,0 hPa 0,0 l/m 10,7 km/h (2 Bft) S-SW 209 2 min 0,000 mm 6,0 UV-I 893 W/m 18,9 C 20,8 C 24,1 km/h (4 Bft) 97,87 %
18.07.2016 11:36 22,1 C 81 % 1020,0 hPa 0,0 l/m 14,9 km/h (3 Bft) S-SW 211 2 min 0,000 mm 6,1 UV-I 893 W/m 18,7 C 19,8 C 24,1 km/h (4 Bft) 100,00 %
18.07.2016 11:38 22,2 C 81 % 1020,0 hPa 0,0 l/m 10,1 km/h (2 Bft) W-SW 241 2 min 0,000 mm 6,3 UV-I 952 W/m 18,8 C 21,0 C 16,1 km/h (3 Bft) 100,00 %
18.07.2016 11:40 22,3 C 81 % 1019,9 hPa 0,0 l/m 9,8 km/h (2 Bft) W-SW 246 2 min 0,000 mm 5,8 UV-I 961 W/m 18,9 C 21,2 C 17,7 km/h (3 Bft) 95,74 %
18.07.2016 11:42 22,4 C 80 % 1020,0 hPa 0,0 l/m 11,0 km/h (2 Bft) S-SW 209 2 min 0,000 mm 6,4 UV-I 965 W/m 18,8 C 21,0 C 17,7 km/h (3 Bft) 100,00 %
18.07.2016 11:44 22,6 C 78 % 1019,9 hPa 0,0 l/m 10,0 km/h (2 Bft) SW 226 2 min 0,000 mm 5,9 UV-I 965 W/m 18,6 C 21,5 C 16,1 km/h (3 Bft) 100,00 %
18.07.2016 11:46 22,4 C 79 % 1019,9 hPa 0,0 l/m 9,0 km/h (2 Bft) SW 221 2 min 0,000 mm 6,3 UV-I 965 W/m 18,6 C 21,6 C 19,3 km/h (3 Bft) 97,87 %
18.07.2016 11:48 22,6 C 78 % 1019,9 hPa 0,0 l/m 9,4 km/h (2 Bft) S 170 2 min 0,000 mm 4,9 UV-I 965 W/m 18,6 C 21,7 C 14,5 km/h (3 Bft) 100,00 %
18.07.2016 11:50 22,7 C 79 % 1020,0 hPa 0,0 l/m 13,7 km/h (3 Bft) SW 214 2 min 0,000 mm 6,4 UV-I 965 W/m 18,9 C 20,8 C 22,5 km/h (4 Bft) 97,87 %
18.07.2016 11:52 22,7 C 77 % 1019,9 hPa 0,0 l/m 7,2 km/h (2 Bft) SW 227 2 min 0,000 mm 5,3 UV-I 965 W/m 18,5 C 22,4 C 12,9 km/h (3 Bft) 100,00 %
18.07.2016 11:54 22,9 C 77 % 1019,9 hPa 0,0 l/m 12,8 km/h (3 Bft) SW 228 2 min 0,000 mm 6,6 UV-I 959 W/m 18,6 C 21,2 C 17,7 km/h (3 Bft) 98,00 %
18.07.2016 11:56 23,1 C 77 % 1019,9 hPa 0,0 l/m 10,1 km/h (2 Bft) W-SW 255 2 min 0,000 mm 6,7 UV-I 931 W/m 18,8 C 22,0 C 14,5 km/h (3 Bft) 100,00 %
18.07.2016 11:58 23,1 C 76 % 1019,9 hPa 0,0 l/m 11,4 km/h (2 Bft) SW 235 2 min 0,000 mm 6,7 UV-I 921 W/m 18,6 C 21,7 C 19,3 km/h (3 Bft) 100,00 %
18.07.2016 12:00 23,1 C 76 % 1019,9 hPa 0,0 l/m 11,3 km/h (2 Bft) S 181 2 min 0,483 mm 6,7 UV-I 947 W/m 18,6 C 21,8 C 16,1 km/h (3 Bft) 100,00 %
18.07.2016 12:02 23,1 C 76 % 1019,9 hPa 0,0 l/m 11,3 km/h (2 Bft) S-SO 163 2 min 0,000 mm 5,7 UV-I 986 W/m 18,6 C 21,8 C 20,9 km/h (4 Bft) 100,00 %
18.07.2016 12:04 22,9 C 75 % 1019,8 hPa 0,0 l/m 11,2 km/h (2 Bft) S-SW 198 2 min 0,000 mm 4,2 UV-I 849 W/m 18,2 C 21,6 C 17,7 km/h (3 Bft) 95,74 %
18.07.2016 12:06 22,7 C 77 % 1019,9 hPa 0,0 l/m 9,4 km/h (2 Bft) S-SW 209 0 min 0,000 mm 3,9 UV-I 260 W/m 18,5 C 21,8 C 16,1 km/h (3 Bft) 95,74 %
18.07.2016 12:08 22,7 C 76 % 1019,9 hPa 0,0 l/m 13,3 km/h (3 Bft) S 180 0 min 0,000 mm 5,3 UV-I 339 W/m 18,2 C 20,9 C 20,9 km/h (4 Bft) 97,87 %
18.07.2016 12:10 22,6 C 78 % 1019,9 hPa 0,0 l/m 11,5 km/h (2 Bft) S-SW 198 2 min 0,000 mm 6,8 UV-I 737 W/m 18,6 C 21,1 C 16,1 km/h (3 Bft) 100,00 %
18.07.2016 12:12 22,7 C 77 % 1019,9 hPa 0,0 l/m 11,0 km/h (2 Bft) S 177 2 min 0,000 mm 6,9 UV-I 957 W/m 18,5 C 21,4 C 17,7 km/h (3 Bft) 97,87 %
18.07.2016 12:14 22,8 C 77 % 1019,9 hPa 0,0 l/m 11,4 km/h (2 Bft) SW 216 2 min 0,000 mm 4,2 UV-I 925 W/m 18,5 C 21,4 C 16,1 km/h (3 Bft) 100,00 %
18.07.2016 12:16 22,6 C 75 % 1019,9 hPa 0,0 l/m 11,2 km/h (2 Bft) SW 229 0 min 0,000 mm 3,0 UV-I 195 W/m 17,9 C 21,2 C 16,1 km/h (3 Bft) 97,87 %
18.07.2016 12:18 22,4 C 76 % 1019,9 hPa 0,0 l/m 7,2 km/h (2 Bft) SW 215 0 min 0,000 mm 3,1 UV-I 180 W/m 18,0 C 22,1 C 11,3 km/h (2 Bft) 100,00 %
18.07.2016 12:20 22,4 C 80 % 1019,8 hPa 0,0 l/m 8,6 km/h (2 Bft) S-SW 200 2 min 0,000 mm 6,3 UV-I 582 W/m 18,8 C 21,7 C 17,7 km/h (3 Bft) 100,00 %
18.07.2016 12:22 23,0 C 81 % 1019,8 hPa 0,0 l/m 9,9 km/h (2 Bft) W-SW 245 2 min 0,000 mm 7,1 UV-I 945 W/m 19,6 C 22,0 C 17,7 km/h (3 Bft) 100,00 %
18.07.2016 12:24 23,4 C 77 % 1019,8 hPa 0,0 l/m 10,6 km/h (2 Bft) W-SW 250 2 min 0,000 mm 7,2 UV-I 954 W/m 19,1 C 22,3 C 16,1 km/h (3 Bft) 100,00 %
18.07.2016 12:26 23,7 C 74 % 1019,8 hPa 0,0 l/m 6,6 km/h (2 Bft) SW 223 2 min 0,000 mm 7,1 UV-I 1009 W/m 18,8 C 23,6 C 14,5 km/h (3 Bft) 97,44 %
18.07.2016 12:28 23,8 C 74 % 1019,8 hPa 0,0 l/m 11,3 km/h (2 Bft) S 179 2 min 0,000 mm 4,7 UV-I 838 W/m 18,9 C 22,6 C 22,5 km/h (4 Bft) 100,00 %
18.07.2016 12:30 23,6 C 71 % 1019,8 hPa 0,0 l/m 14,5 km/h (3 Bft) W-SW 247 0 min 0,000 mm 3,1 UV-I 282 W/m 18,0 C 21,7 C 20,9 km/h (4 Bft) 97,87 %
18.07.2016 12:32 23,3 C 71 % 1019,8 hPa 0,0 l/m 11,8 km/h (2 Bft) W-SW 253 0 min 0,000 mm 2,4 UV-I 239 W/m 17,7 C 21,9 C 20,9 km/h (4 Bft) 98,00 %
18.07.2016 12:34 22,9 C 73 % 1019,8 hPa 0,0 l/m 6,7 km/h (2 Bft) W 274 0 min 0,000 mm 2,0 UV-I 177 W/m 17,8 C 22,8 C 12,9 km/h (3 Bft) 100,00 %
18.07.2016 12:36 22,8 C 74 % 1019,8 hPa 0,0 l/m 12,3 km/h (3 Bft) SW 235 0 min 0,000 mm 3,3 UV-I 206 W/m 17,9 C 21,2 C 17,7 km/h (3 Bft) 98,00 %
18.07.2016 12:38 22,9 C 74 % 1019,8 hPa 0,0 l/m 8,4 km/h (2 Bft) W 266 2 min 0,000 mm 5,3 UV-I 690 W/m 18,0 C 22,3 C 14,5 km/h (3 Bft) 100,00 %
18.07.2016 12:40 23,2 C 73 % 1019,8 hPa 0,0 l/m 9,8 km/h (2 Bft) W-NW 300 2 min 0,000 mm 6,6 UV-I 967 W/m 18,1 C 22,2 C 14,5 km/h (3 Bft) 97,87 %
18.07.2016 12:42 23,3 C 71 % 1019,8 hPa 0,0 l/m 13,1 km/h (3 Bft) W-SW 245 2 min 0,000 mm 6,2 UV-I 969 W/m 17,7 C 21,6 C 22,5 km/h (4 Bft) 97,87 %
18.07.2016 12:44 23,6 C 72 % 1019,7 hPa 0,0 l/m 9,9 km/h (2 Bft) W-NW 284 2 min 0,000 mm 5,4 UV-I 934 W/m 18,2 C 22,6 C 16,1 km/h (3 Bft) 95,74 %
18.07.2016 12:46 23,6 C 71 % 1019,7 hPa 0,0 l/m 9,2 km/h (2 Bft) SW 232 0 min 0,000 mm 3,6 UV-I 413 W/m 18,0 C 22,8 C 14,5 km/h (3 Bft) 95,74 %
18.07.2016 12:48 23,3 C 71 % 1019,7 hPa 0,0 l/m 9,0 km/h (2 Bft) SW 229 0 min 0,000 mm 5,0 UV-I 188 W/m 17,7 C 22,5 C 17,7 km/h (3 Bft) 95,74 %
18.07.2016 12:50 23,4 C 70 % 1019,8 hPa 0,0 l/m 10,2 km/h (2 Bft) W 261 2 min 0,000 mm 6,1 UV-I 652 W/m 17,6 C 22,3 C 20,9 km/h (4 Bft) 95,74 %
18.07.2016 12:52 23,5 C 69 % 1019,8 hPa 0,0 l/m 15,1 km/h (3 Bft) W 267 2 min 0,000 mm 6,3 UV-I 1019 W/m 17,5 C 21,5 C 24,1 km/h (4 Bft) 98,00 %
18.07.2016 12:54 23,7 C 69 % 1019,7 hPa 0,0 l/m 10,0 km/h (2 Bft) SW 229 2 min 0,000 mm 4,6 UV-I 1013 W/m 17,7 C 22,7 C 16,1 km/h (3 Bft) 98,00 %
18.07.2016 12:56 23,8 C 68 % 1019,7 hPa 0,0 l/m 11,9 km/h (2 Bft) W-SW 238 2 min 0,000 mm 2,7 UV-I 611 W/m 17,5 C 22,4 C 20,9 km/h (4 Bft) 97,87 %
18.07.2016 12:58 23,8 C 69 % 1019,7 hPa 0,0 l/m 11,2 km/h (2 Bft) W 261 0 min 0,000 mm 2,5 UV-I 274 W/m 17,8 C 22,6 C 17,7 km/h (3 Bft) 95,74 %
18.07.2016 13:00 23,6 C 68 % 1019,7 hPa 0,0 l/m 6,0 km/h (2 Bft) SW 221 0 min 0,000 mm 2,2 UV-I 189 W/m 17,3 C 23,6 C 12,9 km/h (3 Bft) 97,87 %
18.07.2016 13:02 23,4 C 72 % 1019,6 hPa 0,0 l/m 2,3 km/h (1 Bft) W-SW 248 0 min 0,406 mm 1,9 UV-I 166 W/m 18,1 C 23,4 C 6,4 km/h (2 Bft) 95,74 %
18.07.2016 13:04 23,2 C 70 % 1019,7 hPa 0,0 l/m 4,7 km/h (1 Bft) SW 229 0 min 0,000 mm 2,1 UV-I 151 W/m 17,4 C 23,2 C 9,7 km/h (2 Bft) 97,87 %
18.07.2016 13:06 23,2 C 70 % 1019,7 hPa 0,0 l/m 6,4 km/h (2 Bft) W-SW 239 0 min 0,000 mm 4,0 UV-I 472 W/m 17,4 C 23,2 C 12,9 km/h (3 Bft) 97,87 %
18.07.2016 13:08 23,3 C 70 % 1019,7 hPa 0,0 l/m 9,8 km/h (2 Bft) SW 228 2 min 0,000 mm 6,8 UV-I 898 W/m 17,5 C 22,3 C 14,5 km/h (3 Bft) 97,44 %
18.07.2016 13:10 23,7 C 71 % 1019,7 hPa 0,0 l/m 10,9 km/h (2 Bft) SW 215 2 min 0,000 mm 7,2 UV-I 929 W/m 18,1 C 22,5 C 20,9 km/h (4 Bft) 95,74 %
18.07.2016 13:12 24,1 C 70 % 1019,6 hPa 0,0 l/m 9,7 km/h (2 Bft) SW 232 2 min 0,000 mm 7,5 UV-I 990 W/m 18,3 C 23,2 C 19,3 km/h (3 Bft) 100,00 %
18.07.2016 13:14 24,2 C 66 % 1019,6 hPa 0,0 l/m 13,0 km/h (3 Bft) SW 231 2 min 0,000 mm 6,0 UV-I 1007 W/m 17,4 C 22,7 C 20,9 km/h (4 Bft) 100,00 %
18.07.2016 13:16 24,3 C 67 % 1019,5 hPa 0,0 l/m 12,4 km/h (3 Bft) W 265 2 min 0,000 mm 7,7 UV-I 1029 W/m 17,8 C 22,9 C 17,7 km/h (3 Bft) 100,00 %
18.07.2016 13:18 24,4 C 67 % 1019,5 hPa 0,0 l/m 11,3 km/h (2 Bft) W-SW 240 2 min 0,000 mm 7,5 UV-I 1050 W/m 17,9 C 23,2 C 19,3 km/h (3 Bft) 95,74 %
18.07.2016 13:20 24,5 C 67 % 1019,5 hPa 0,0 l/m 9,3 km/h (2 Bft) W-SW 247 2 min 0,000 mm 4,6 UV-I 640 W/m 18,0 C 23,8 C 17,7 km/h (3 Bft) 100,00 %
18.07.2016 13:22 24,5 C 64 % 1019,5 hPa 0,0 l/m 14,6 km/h (3 Bft) W-NW 286 0 min 0,000 mm 5,6 UV-I 323 W/m 17,2 C 22,8 C 27,4 km/h (4 Bft) 97,37 %
18.07.2016 13:24 24,3 C 64 % 1019,5 hPa 0,0 l/m 8,9 km/h (2 Bft) W 259 0 min 0,000 mm 6,8 UV-I 365 W/m 17,0 C 23,6 C 14,5 km/h (3 Bft) 100,00 %
18.07.2016 13:26 24,5 C 66 % 1019,5 hPa 0,0 l/m 7,5 km/h (2 Bft) W 264 2 min 0,000 mm 7,1 UV-I 969 W/m 17,7 C 24,2 C 14,5 km/h (3 Bft) 95,74 %
18.07.2016 13:28 24,4 C 63 % 1019,4 hPa 0,0 l/m 9,1 km/h (2 Bft) W-SW 240 2 min 0,000 mm 7,1 UV-I 959 W/m 16,9 C 23,7 C 16,1 km/h (3 Bft) 100,00 %
18.07.2016 13:30 24,4 C 64 % 1019,4 hPa 0,0 l/m 7,4 km/h (2 Bft) NW 326 2 min 0,000 mm 6,9 UV-I 843 W/m 17,1 C 24,1 C 19,3 km/h (3 Bft) 100,00 %
18.07.2016 13:32 24,6 C 69 % 1019,3 hPa 0,0 l/m 5,0 km/h (1 Bft) W 274 2 min 0,000 mm 7,1 UV-I 901 W/m 18,5 C 24,6 C 11,3 km/h (2 Bft) 100,00 %
18.07.2016 13:34 24,8 C 66 % 1019,4 hPa 0,0 l/m 8,1 km/h (2 Bft) W-SW 251 2 min 0,000 mm 6,1 UV-I 1011 W/m 18,0 C 24,4 C 16,1 km/h (3 Bft) 100,00 %
18.07.2016 13:36 25,0 C 63 % 1019,3 hPa 0,0 l/m 7,2 km/h (2 Bft) SW 216 2 min 0,000 mm 6,5 UV-I 1018 W/m 17,5 C 24,8 C 12,9 km/h (3 Bft) 100,00 %
18.07.2016 13:38 24,8 C 63 % 1019,3 hPa 0,0 l/m 4,7 km/h (1 Bft) NO 43 2 min 0,000 mm 6,2 UV-I 1026 W/m 17,3 C 24,8 C 11,3 km/h (2 Bft) 100,00 %
18.07.2016 13:40 24,7 C 64 % 1019,3 hPa 0,0 l/m 5,3 km/h (1 Bft) W-SW 239 2 min 0,000 mm 6,3 UV-I 1051 W/m 17,4 C 24,7 C 12,9 km/h (3 Bft) 100,00 %
18.07.2016 13:42 24,6 C 68 % 1019,2 hPa 0,0 l/m 2,7 km/h (1 Bft) SW 223 2 min 0,000 mm 5,2 UV-I 1051 W/m 18,3 C 24,6 C 8,0 km/h (2 Bft) 97,87 %
18.07.2016 13:44 24,8 C 67 % 1019,3 hPa 0,0 l/m 8,1 km/h (2 Bft) W-NW 298 2 min 0,000 mm 7,2 UV-I 1039 W/m 18,2 C 24,4 C 14,5 km/h (3 Bft) 95,74 %
18.07.2016 13:46 24,8 C 64 % 1019,2 hPa 0,0 l/m 3,5 km/h (1 Bft) NW 304 2 min 0,000 mm 5,9 UV-I 1030 W/m 17,5 C 24,8 C 6,4 km/h (2 Bft) 95,74 %
18.07.2016 13:48 24,8 C 65 % 1019,2 hPa 0,0 l/m 3,1 km/h (1 Bft) NW 305 2 min 0,000 mm 6,9 UV-I 1001 W/m 17,8 C 24,8 C 6,4 km/h (2 Bft) 95,83 %
18.07.2016 13:50 24,9 C 65 % 1019,1 hPa 0,0 l/m 4,1 km/h (1 Bft) W-NW 285 2 min 0,000 mm 7,0 UV-I 993 W/m 17,9 C 24,9 C 9,7 km/h (2 Bft) 100,00 %
18.07.2016 13:52 25,1 C 65 % 1019,1 hPa 0,0 l/m 13,0 km/h (3 Bft) W-SW 242 2 min 0,000 mm 7,1 UV-I 986 W/m 18,0 C 23,7 C 17,7 km/h (3 Bft) 100,00 %
18.07.2016 13:54 25,1 C 66 % 1019,1 hPa 0,0 l/m 9,4 km/h (2 Bft) W 273 2 min 0,000 mm 7,1 UV-I 978 W/m 18,3 C 24,4 C 17,7 km/h (3 Bft) 96,00 %
18.07.2016 13:56 25,1 C 64 % 1019,1 hPa 0,0 l/m 12,5 km/h (3 Bft) W 280 2 min 0,000 mm 7,2 UV-I 950 W/m 17,8 C 23,8 C 19,3 km/h (3 Bft) 100,00 %
18.07.2016 13:58 25,1 C 63 % 1019,0 hPa 0,0 l/m 11,7 km/h (2 Bft) W-SW 239 2 min 0,000 mm 7,2 UV-I 950 W/m 17,5 C 24,0 C 17,7 km/h (3 Bft) 100,00 %
18.07.2016 14:00 25,2 C 64 % 1018,9 hPa 0,0 l/m 9,1 km/h (2 Bft) W 275 2 min 0,000 mm 6,9 UV-I 975 W/m 17,9 C 24,6 C 14,5 km/h (3 Bft) 100,00 %
18.07.2016 14:02 25,2 C 65 % 1018,9 hPa 0,0 l/m 9,9 km/h (2 Bft) W 263 2 min 0,534 mm 5,3 UV-I 976 W/m 18,1 C 24,4 C 17,7 km/h (3 Bft) 100,00 %
18.07.2016 14:04 25,2 C 63 % 1018,9 hPa 0,0 l/m 12,9 km/h (3 Bft) W 273 2 min 0,000 mm 6,7 UV-I 974 W/m 17,6 C 23,9 C 22,5 km/h (4 Bft) 97,87 %
18.07.2016 14:06 25,1 C 64 % 1018,9 hPa 0,0 l/m 8,9 km/h (2 Bft) W-SW 257 2 min 0,000 mm 6,8 UV-I 963 W/m 17,8 C 24,5 C 14,5 km/h (3 Bft) 97,37 %
18.07.2016 14:08 25,1 C 61 % 1018,9 hPa 0,0 l/m 10,3 km/h (2 Bft) N-NW 341 2 min 0,000 mm 6,6 UV-I 764 W/m 17,0 C 24,2 C 17,7 km/h (3 Bft) 97,87 %
18.07.2016 14:10 24,8 C 63 % 1018,9 hPa 0,0 l/m 6,0 km/h (2 Bft) S-SO 162 0 min 0,000 mm 4,0 UV-I 230 W/m 17,3 C 24,8 C 14,5 km/h (3 Bft) 100,00 %
18.07.2016 14:12 24,8 C 63 % 1018,9 hPa 0,0 l/m 4,7 km/h (1 Bft) SW 227 0 min 0,000 mm 5,3 UV-I 230 W/m 17,3 C 24,8 C 9,7 km/h (2 Bft) 97,87 %
18.07.2016 14:14 24,8 C 61 % 1018,9 hPa 0,0 l/m 8,1 km/h (2 Bft) W-SW 242 0 min 0,000 mm 3,9 UV-I 239 W/m 16,8 C 24,4 C 16,1 km/h (3 Bft) 97,87 %
18.07.2016 14:16 24,8 C 63 % 1018,9 hPa 0,0 l/m 4,5 km/h (1 Bft) W 273 0 min 0,000 mm 3,6 UV-I 262 W/m 17,3 C 24,8 C 12,9 km/h (3 Bft) 100,00 %
18.07.2016 14:18 24,6 C 63 % 1018,9 hPa 0,0 l/m 4,6 km/h (1 Bft) W 277 0 min 0,000 mm 3,3 UV-I 178 W/m 17,1 C 24,6 C 17,7 km/h (3 Bft) 100,00 %
18.07.2016 14:20 24,4 C 63 % 1018,9 hPa 0,0 l/m 8,0 km/h (2 Bft) W 277 0 min 0,000 mm 5,2 UV-I 382 W/m 16,9 C 24,0 C 17,7 km/h (3 Bft) 100,00 %
18.07.2016 14:22 24,6 C 63 % 1018,9 hPa 0,0 l/m 10,6 km/h (2 Bft) W-NW 290 2 min 0,000 mm 6,5 UV-I 905 W/m 17,1 C 23,6 C 16,1 km/h (3 Bft) 100,00 %
18.07.2016 14:24 24,8 C 63 % 1018,9 hPa 0,0 l/m 12,2 km/h (2 Bft) W 259 2 min 0,000 mm 6,1 UV-I 911 W/m 17,3 C 23,5 C 19,3 km/h (3 Bft) 100,00 %
18.07.2016 14:26 24,9 C 62 % 1018,9 hPa 0,0 l/m 5,2 km/h (1 Bft) NO 54 2 min 0,000 mm 5,7 UV-I 916 W/m 17,1 C 24,9 C 14,5 km/h (3 Bft) 97,87 %
18.07.2016 14:28 25,1 C 60 % 1018,8 hPa 0,0 l/m 6,6 km/h (2 Bft) NW 308 2 min 0,000 mm 6,6 UV-I 929 W/m 16,8 C 25,1 C 16,1 km/h (3 Bft) 97,87 %
18.07.2016 14:30 25,3 C 60 % 1018,8 hPa 0,0 l/m 7,9 km/h (2 Bft) W-SW 240 2 min 0,000 mm 5,5 UV-I 822 W/m 17,0 C 24,9 C 17,7 km/h (3 Bft) 100,00 %
18.07.2016 14:32 25,3 C 63 % 1018,8 hPa 0,0 l/m 5,9 km/h (2 Bft) W-SW 237 0 min 0,000 mm 4,2 UV-I 261 W/m 17,7 C 25,3 C 14,5 km/h (3 Bft) 97,96 %
18.07.2016 14:34 25,1 C 61 % 1018,8 hPa 0,0 l/m 5,9 km/h (2 Bft) W-SW 254 0 min 0,000 mm 4,0 UV-I 243 W/m 17,0 C 25,1 C 12,9 km/h (3 Bft) 98,11 %
18.07.2016 14:36 25,0 C 63 % 1018,8 hPa 0,0 l/m 8,8 km/h (2 Bft) W 281 2 min 0,000 mm 6,3 UV-I 633 W/m 17,5 C 24,4 C 14,5 km/h (3 Bft) 97,87 %
18.07.2016 14:38 25,2 C 61 % 1018,8 hPa 0,0 l/m 10,5 km/h (2 Bft) SW 231 2 min 0,000 mm 6,6 UV-I 898 W/m 17,1 C 24,3 C 16,1 km/h (3 Bft) 97,87 %
18.07.2016 14:40 25,3 C 61 % 1018,7 hPa 0,0 l/m 13,7 km/h (3 Bft) W-SW 251 2 min 0,000 mm 6,5 UV-I 888 W/m 17,2 C 23,9 C 24,1 km/h (4 Bft) 95,74 %
18.07.2016 14:42 25,5 C 59 % 1018,7 hPa 0,0 l/m 10,9 km/h (2 Bft) W-SW 241 2 min 0,000 mm 6,2 UV-I 853 W/m 16,9 C 24,6 C 17,7 km/h (3 Bft) 95,74 %
18.07.2016 14:44 25,4 C 58 % 1018,7 hPa 0,0 l/m 17,7 km/h (3 Bft) W-NW 284 2 min 0,000 mm 4,5 UV-I 833 W/m 16,5 C 23,4 C 25,7 km/h (4 Bft) 95,74 %
18.07.2016 14:46 25,2 C 59 % 1018,7 hPa 0,0 l/m 8,4 km/h (2 Bft) SW 227 2 min 0,000 mm 5,9 UV-I 873 W/m 16,6 C 24,7 C 16,1 km/h (3 Bft) 97,87 %
18.07.2016 14:48 25,2 C 60 % 1018,7 hPa 0,0 l/m 8,7 km/h (2 Bft) W-SW 250 2 min 0,000 mm 6,3 UV-I 905 W/m 16,9 C 24,7 C 16,1 km/h (3 Bft) 95,74 %
18.07.2016 14:50 25,3 C 60 % 1018,6 hPa 0,0 l/m 11,4 km/h (2 Bft) W-SW 243 2 min 0,000 mm 6,3 UV-I 896 W/m 17,0 C 24,2 C 14,5 km/h (3 Bft) 94,44 %
18.07.2016 14:52 25,6 C 61 % 1018,6 hPa 0,0 l/m 5,5 km/h (1 Bft) W 269 2 min 0,000 mm 6,0 UV-I 867 W/m 17,5 C 25,6 C 9,7 km/h (2 Bft) 98,00 %
18.07.2016 14:54 25,9 C 62 % 1018,5 hPa 0,0 l/m 8,9 km/h (2 Bft) W-SW 244 2 min 0,000 mm 6,0 UV-I 871 W/m 18,0 C 25,4 C 19,3 km/h (3 Bft) 95,74 %
18.07.2016 14:56 25,9 C 59 % 1018,5 hPa 0,0 l/m 8,7 km/h (2 Bft) W-SW 237 2 min 0,000 mm 6,1 UV-I 897 W/m 17,3 C 25,4 C 14,5 km/h (3 Bft) 95,74 %
18.07.2016 14:58 26,0 C 57 % 1018,5 hPa 0,0 l/m 10,2 km/h (2 Bft) W 259 2 min 0,000 mm 6,1 UV-I 907 W/m 16,8 C 25,2 C 22,5 km/h (4 Bft) 97,87 %
18.07.2016 15:00 26,0 C 56 % 1018,4 hPa 0,0 l/m 7,3 km/h (2 Bft) N-NW 342 2 min 0,482 mm 6,0 UV-I 878 W/m 16,5 C 25,8 C 14,5 km/h (3 Bft) 97,87 %
18.07.2016 15:02 26,2 C 57 % 1018,4 hPa 0,0 l/m 5,0 km/h (1 Bft) W 277 2 min 0,000 mm 5,6 UV-I 856 W/m 17,0 C 26,2 C 12,9 km/h (3 Bft) 93,62 %
18.07.2016 15:04 26,3 C 57 % 1018,4 hPa 0,0 l/m 4,5 km/h (1 Bft) SW 232 2 min 0,000 mm 5,9 UV-I 849 W/m 17,1 C 26,3 C 8,0 km/h (2 Bft) 98,00 %
18.07.2016 15:06 26,3 C 57 % 1018,4 hPa 0,0 l/m 7,1 km/h (2 Bft) W 277 2 min 0,000 mm 5,8 UV-I 835 W/m 17,1 C 26,2 C 14,5 km/h (3 Bft) 97,87 %
18.07.2016 15:08 26,4 C 57 % 1018,4 hPa 0,0 l/m 7,1 km/h (2 Bft) W 261 2 min 0,000 mm 5,8 UV-I 845 W/m 17,2 C 26,3 C 16,1 km/h (3 Bft) 97,92 %
18.07.2016 15:10 26,4 C 54 % 1018,4 hPa 0,0 l/m 10,3 km/h (2 Bft) W-SW 240 2 min 0,000 mm 4,7 UV-I 805 W/m 16,3 C 25,7 C 14,5 km/h (3 Bft) 100,00 %
18.07.2016 15:12 26,1 C 56 % 1018,4 hPa 0,0 l/m 9,5 km/h (2 Bft) W-SW 251 0 min 0,000 mm 4,9 UV-I 221 W/m 16,6 C 25,5 C 17,7 km/h (3 Bft) 100,00 %
18.07.2016 15:14 26,0 C 60 % 1018,4 hPa 0,0 l/m 12,5 km/h (3 Bft) SW 229 2 min 0,000 mm 5,7 UV-I 477 W/m 17,6 C 24,9 C 19,3 km/h (3 Bft) 97,87 %
18.07.2016 15:16 26,1 C 57 % 1018,4 hPa 0,0 l/m 18,7 km/h (3 Bft) W 261 2 min 0,000 mm 5,6 UV-I 864 W/m 16,9 C 24,2 C 25,7 km/h (4 Bft) 100,00 %
18.07.2016 15:18 26,2 C 55 % 1018,4 hPa 0,0 l/m 10,4 km/h (2 Bft) W 270 2 min 0,000 mm 5,6 UV-I 856 W/m 16,4 C 25,4 C 19,3 km/h (3 Bft) 100,00 %
18.07.2016 15:20 26,3 C 58 % 1018,4 hPa 0,0 l/m 9,0 km/h (2 Bft) W-SW 252 2 min 0,000 mm 5,5 UV-I 844 W/m 17,4 C 25,8 C 16,1 km/h (3 Bft) 100,00 %
18.07.2016 15:22 26,6 C 55 % 1018,4 hPa 0,0 l/m 6,2 km/h (2 Bft) W-SW 250 2 min 0,000 mm 5,4 UV-I 842 W/m 16,8 C 26,6 C 12,9 km/h (3 Bft) 97,87 %
18.07.2016 15:24 26,7 C 56 % 1018,4 hPa 0,0 l/m 8,5 km/h (2 Bft) W-NW 292 2 min 0,000 mm 5,2 UV-I 817 W/m 17,2 C 26,3 C 17,7 km/h (3 Bft) 97,87 %
18.07.2016 15:26 26,6 C 54 % 1018,4 hPa 0,0 l/m 11,9 km/h (2 Bft) W-NW 282 2 min 0,000 mm 5,2 UV-I 833 W/m 16,5 C 25,6 C 20,9 km/h (4 Bft) 100,00 %
18.07.2016 15:28 26,6 C 56 % 1018,5 hPa 0,0 l/m 5,1 km/h (1 Bft) W 263 2 min 0,000 mm 5,1 UV-I 828 W/m 17,1 C 26,6 C 16,1 km/h (3 Bft) 97,87 %
18.07.2016 15:30 26,5 C 55 % 1018,4 hPa 0,0 l/m 8,8 km/h (2 Bft) W-NW 288 2 min 0,000 mm 4,9 UV-I 853 W/m 16,7 C 26,0 C 17,7 km/h (3 Bft) 100,00 %
18.07.2016 15:32 26,3 C 54 % 1018,4 hPa 0,0 l/m 13,7 km/h (3 Bft) SW 229 2 min 0,000 mm 3,0 UV-I 591 W/m 16,2 C 25,0 C 19,3 km/h (3 Bft) 100,00 %
18.07.2016 15:34 25,9 C 54 % 1018,4 hPa 0,0 l/m 7,8 km/h (2 Bft) W-NW 290 0 min 0,000 mm 1,9 UV-I 155 W/m 15,9 C 25,6 C 14,5 km/h (3 Bft) 98,00 %
18.07.2016 15:36 25,6 C 58 % 1018,4 hPa 0,0 l/m 6,5 km/h (2 Bft) SW 232 0 min 0,000 mm 1,5 UV-I 125 W/m 16,7 C 25,6 C 12,9 km/h (3 Bft) 97,87 %
18.07.2016 15:38 25,2 C 59 % 1018,4 hPa 0,0 l/m 3,6 km/h (1 Bft) W 274 0 min 0,000 mm 1,3 UV-I 116 W/m 16,6 C 25,2 C 11,3 km/h (2 Bft) 97,87 %
18.07.2016 15:40 25,0 C 58 % 1018,5 hPa 0,0 l/m 4,0 km/h (1 Bft) O-NO 72 0 min 0,000 mm 1,3 UV-I 117 W/m 16,1 C 25,0 C 8,0 km/h (2 Bft) 100,00 %
18.07.2016 15:42 24,8 C 58 % 1018,5 hPa 0,0 l/m 5,3 km/h (1 Bft) W-SW 254 0 min 0,000 mm 1,3 UV-I 123 W/m 16,0 C 24,8 C 9,7 km/h (2 Bft) 100,00 %
18.07.2016 15:44 24,7 C 59 % 1018,5 hPa 0,0 l/m 8,6 km/h (2 Bft) NW 315 0 min 0,000 mm 1,3 UV-I 129 W/m 16,1 C 24,1 C 17,7 km/h (3 Bft) 100,00 %
18.07.2016 15:46 24,6 C 58 % 1018,5 hPa 0,0 l/m 6,7 km/h (2 Bft) W 261 0 min 0,000 mm 1,3 UV-I 138 W/m 15,8 C 24,5 C 14,5 km/h (3 Bft) 100,00 %
18.07.2016 15:48 24,5 C 60 % 1018,6 hPa 0,0 l/m 7,7 km/h (2 Bft) W 269 0 min 0,000 mm 1,3 UV-I 139 W/m 16,2 C 24,2 C 14,5 km/h (3 Bft) 97,87 %
18.07.2016 15:50 24,4 C 58 % 1018,5 hPa 0,0 l/m 6,1 km/h (2 Bft) W 269 0 min 0,000 mm 1,3 UV-I 134 W/m 15,6 C 24,4 C 11,3 km/h (2 Bft) 100,00 %
18.07.2016 15:52 24,4 C 59 % 1018,5 hPa 0,0 l/m 4,4 km/h (1 Bft) W 271 0 min 0,000 mm 1,2 UV-I 111 W/m 15,9 C 24,4 C 6,4 km/h (2 Bft) 100,00 %
18.07.2016 15:54 24,3 C 59 % 1018,4 hPa 0,0 l/m 7,3 km/h (2 Bft) W-NW 284 0 min 0,000 mm 1,1 UV-I 95 W/m 15,8 C 24,1 C 12,9 km/h (3 Bft) 97,87 %
18.07.2016 15:56 24,2 C 59 % 1018,5 hPa 0,0 l/m 8,2 km/h (2 Bft) W-NW 283 0 min 0,000 mm 1,1 UV-I 88 W/m 15,7 C 23,7 C 14,5 km/h (3 Bft) 100,00 %
18.07.2016 15:58 24,2 C 59 % 1018,5 hPa 0,0 l/m 5,9 km/h (2 Bft) SW 225 0 min 0,000 mm 1,0 UV-I 82 W/m 15,7 C 24,2 C 12,9 km/h (3 Bft) 95,74 %
18.07.2016 16:00 24,1 C 60 % 1018,5 hPa 0,0 l/m 8,6 km/h (2 Bft) W 264 0 min 0,356 mm 1,1 UV-I 91 W/m 15,8 C 23,5 C 16,1 km/h (3 Bft) 100,00 %
18.07.2016 16:02 24,1 C 60 % 1018,5 hPa 0,0 l/m 6,1 km/h (2 Bft) W 265 0 min 0,000 mm 1,1 UV-I 102 W/m 15,8 C 24,1 C 9,7 km/h (2 Bft) 100,00 %
18.07.2016 16:04 24,1 C 62 % 1018,5 hPa 0,0 l/m 6,4 km/h (2 Bft) W-SW 238 0 min 0,000 mm 1,3 UV-I 129 W/m 16,4 C 24,1 C 14,5 km/h (3 Bft) 100,00 %
18.07.2016 16:06 24,1 C 61 % 1018,5 hPa 0,0 l/m 6,1 km/h (2 Bft) W 279 0 min 0,000 mm 1,9 UV-I 199 W/m 16,1 C 24,1 C 9,7 km/h (2 Bft) 100,00 %
18.07.2016 16:08 24,4 C 62 % 1018,5 hPa 0,0 l/m 5,6 km/h (1 Bft) S-SW 212 2 min 0,000 mm 3,4 UV-I 499 W/m 16,6 C 24,4 C 12,9 km/h (3 Bft) 97,87 %
18.07.2016 16:10 24,9 C 63 % 1018,5 hPa 0,0 l/m 6,4 km/h (2 Bft) W-SW 246 2 min 0,000 mm 4,0 UV-I 803 W/m 17,4 C 24,9 C 11,3 km/h (2 Bft) 100,00 %
18.07.2016 16:12 25,2 C 61 % 1018,4 hPa 0,0 l/m 7,3 km/h (2 Bft) W 279 2 min 0,000 mm 4,0 UV-I 803 W/m 17,1 C 25,0 C 12,9 km/h (3 Bft) 100,00 %
18.07.2016 16:14 25,4 C 62 % 1018,4 hPa 0,0 l/m 9,5 km/h (2 Bft) W-SW 240 2 min 0,000 mm 3,6 UV-I 743 W/m 17,6 C 24,7 C 27,4 km/h (4 Bft) 97,87 %
18.07.2016 16:16 25,6 C 62 % 1018,4 hPa 0,0 l/m 17,8 km/h (3 Bft) S 180 2 min 0,000 mm 3,8 UV-I 790 W/m 17,8 C 23,7 C 24,1 km/h (4 Bft) 95,74 %
18.07.2016 16:18 25,6 C 63 % 1018,4 hPa 0,0 l/m 17,6 km/h (3 Bft) S 180 2 min 0,000 mm 3,7 UV-I 765 W/m 18,0 C 23,7 C 25,7 km/h (4 Bft) 100,00 %
18.07.2016 16:20 25,6 C 64 % 1018,3 hPa 0,0 l/m 14,2 km/h (3 Bft) SW 232 2 min 0,000 mm 3,8 UV-I 763 W/m 18,3 C 24,1 C 22,5 km/h (4 Bft) 95,74 %
18.07.2016 16:22 25,6 C 63 % 1018,4 hPa 0,0 l/m 15,4 km/h (3 Bft) S-SW 206 2 min 0,000 mm 3,6 UV-I 751 W/m 18,0 C 24,0 C 20,9 km/h (4 Bft) 100,00 %
18.07.2016 16:24 25,6 C 63 % 1018,4 hPa 0,0 l/m 15,8 km/h (3 Bft) S 175 2 min 0,000 mm 3,1 UV-I 712 W/m 18,0 C 23,9 C 27,4 km/h (4 Bft) 98,00 %
18.07.2016 16:26 25,3 C 63 % 1018,4 hPa 0,0 l/m 13,0 km/h (3 Bft) S-SW 208 2 min 0,000 mm 2,4 UV-I 435 W/m 17,7 C 24,0 C 19,3 km/h (3 Bft) 100,00 %
18.07.2016 16:28 25,1 C 64 % 1018,3 hPa 0,0 l/m 13,1 km/h (3 Bft) S-SW 199 0 min 0,000 mm 1,8 UV-I 176 W/m 17,8 C 23,7 C 24,1 km/h (4 Bft) 100,00 %
18.07.2016 16:30 24,8 C 65 % 1018,2 hPa 0,0 l/m 9,6 km/h (2 Bft) W-SW 249 0 min 0,000 mm 1,5 UV-I 148 W/m 17,8 C 24,0 C 16,1 km/h (3 Bft) 97,87 %
18.07.2016 16:32 24,6 C 64 % 1018,3 hPa 0,0 l/m 12,9 km/h (3 Bft) S-SW 199 0 min 0,000 mm 1,5 UV-I 143 W/m 17,3 C 23,2 C 20,9 km/h (4 Bft) 95,74 %
18.07.2016 16:34 24,6 C 67 % 1018,2 hPa 0,0 l/m 11,6 km/h (2 Bft) SW 227 0 min 0,000 mm 1,9 UV-I 193 W/m 18,1 C 23,4 C 17,7 km/h (3 Bft) 92,45 %
18.07.2016 16:36 24,7 C 64 % 1018,2 hPa 0,0 l/m 11,4 km/h (2 Bft) W-SW 244 0 min 0,000 mm 1,2 UV-I 274 W/m 17,4 C 23,6 C 19,3 km/h (3 Bft) 97,87 %
18.07.2016 16:38 24,6 C 65 % 1018,2 hPa 0,0 l/m 10,8 km/h (2 Bft) W-SW 241 0 min 0,000 mm 1,1 UV-I 145 W/m 17,6 C 23,6 C 20,9 km/h (4 Bft) 95,74 %
18.07.2016 16:40 24,7 C 65 % 1018,3 hPa 0,0 l/m 11,6 km/h (2 Bft) S-SW 211 0 min 0,000 mm 1,6 UV-I 236 W/m 17,7 C 23,5 C 20,9 km/h (4 Bft) 97,37 %
18.07.2016 16:42 24,8 C 64 % 1018,2 hPa 0,0 l/m 11,6 km/h (2 Bft) S-SW 195 0 min 0,000 mm 2,1 UV-I 329 W/m 17,5 C 23,6 C 19,3 km/h (3 Bft) 97,87 %
18.07.2016 16:44 24,9 C 65 % 1018,2 hPa 0,0 l/m 11,0 km/h (2 Bft) S-SW 200 2 min 0,000 mm 2,0 UV-I 359 W/m 17,9 C 23,9 C 22,5 km/h (4 Bft) 97,87 %
18.07.2016 16:46 24,9 C 64 % 1018,2 hPa 0,0 l/m 14,2 km/h (3 Bft) S 175 0 min 0,000 mm 1,7 UV-I 235 W/m 17,6 C 23,3 C 24,1 km/h (4 Bft) 97,87 %
18.07.2016 16:48 24,7 C 63 % 1018,2 hPa 0,0 l/m 13,9 km/h (3 Bft) SW 215 0 min 0,000 mm 1,6 UV-I 203 W/m 17,2 C 23,1 C 20,9 km/h (4 Bft) 94,00 %
18.07.2016 16:50 24,7 C 64 % 1018,2 hPa 0,0 l/m 8,1 km/h (2 Bft) W 259 0 min 0,000 mm 2,2 UV-I 265 W/m 17,4 C 24,3 C 12,9 km/h (3 Bft) 97,87 %
18.07.2016 16:52 24,8 C 63 % 1018,1 hPa 0,0 l/m 12,2 km/h (2 Bft) SW 220 2 min 0,000 mm 2,4 UV-I 631 W/m 17,3 C 23,5 C 19,3 km/h (3 Bft) 97,87 %
18.07.2016 16:54 24,9 C 63 % 1018,1 hPa 0,0 l/m 10,2 km/h (2 Bft) SW 234 0 min 0,000 mm 2,0 UV-I 261 W/m 17,4 C 24,0 C 16,1 km/h (3 Bft) 97,87 %
18.07.2016 16:56 24,9 C 62 % 1018,1 hPa 0,0 l/m 11,2 km/h (2 Bft) W-SW 245 0 min 0,000 mm 2,1 UV-I 236 W/m 17,1 C 23,8 C 16,1 km/h (3 Bft) 95,74 %
18.07.2016 16:58 24,9 C 63 % 1018,1 hPa 0,0 l/m 11,2 km/h (2 Bft) S-SW 206 2 min 0,000 mm 2,2 UV-I 485 W/m 17,4 C 23,8 C 16,1 km/h (3 Bft) 95,74 %
18.07.2016 17:00 25,1 C 62 % 1018,0 hPa 0,0 l/m 13,9 km/h (3 Bft) W 261 2 min 0,330 mm 2,1 UV-I 483 W/m 17,3 C 23,6 C 22,5 km/h (4 Bft) 97,22 %
18.07.2016 17:02 25,2 C 61 % 1018,1 hPa 0,0 l/m 10,1 km/h (2 Bft) W-SW 247 2 min 0,000 mm 2,4 UV-I 362 W/m 17,1 C 24,4 C 14,5 km/h (3 Bft) 95,08 %
18.07.2016 17:04 25,3 C 61 % 1018,1 hPa 0,0 l/m 10,0 km/h (2 Bft) SW 224 2 min 0,000 mm 2,7 UV-I 681 W/m 17,2 C 24,5 C 17,7 km/h (3 Bft) 97,92 %
18.07.2016 17:06 25,3 C 63 % 1018,1 hPa 0,0 l/m 11,2 km/h (2 Bft) W-SW 241 2 min 0,000 mm 2,6 UV-I 634 W/m 17,7 C 24,3 C 16,1 km/h (3 Bft) 97,87 %
18.07.2016 17:08 25,6 C 63 % 1018,1 hPa 0,0 l/m 7,9 km/h (2 Bft) S 178 2 min 0,000 mm 2,5 UV-I 591 W/m 18,0 C 25,3 C 14,5 km/h (3 Bft) 100,00 %
18.07.2016 17:10 25,7 C 61 % 1018,1 hPa 0,0 l/m 13,2 km/h (3 Bft) W-SW 237 2 min 0,000 mm 2,4 UV-I 569 W/m 17,6 C 24,4 C 20,9 km/h (4 Bft) 97,14 %
18.07.2016 17:12 25,7 C 61 % 1018,1 hPa 0,0 l/m 7,2 km/h (2 Bft) SW 226 2 min 0,000 mm 2,3 UV-I 545 W/m 17,6 C 25,5 C 14,5 km/h (3 Bft) 100,00 %
18.07.2016 17:14 25,7 C 62 % 1018,0 hPa 0,0 l/m 12,5 km/h (3 Bft) W 266 2 min 0,000 mm 2,2 UV-I 548 W/m 17,9 C 24,5 C 19,3 km/h (3 Bft) 97,87 %
18.07.2016 17:16 25,6 C 62 % 1018,0 hPa 0,0 l/m 13,8 km/h (3 Bft) SW 235 2 min 0,000 mm 2,0 UV-I 530 W/m 17,8 C 24,2 C 20,9 km/h (4 Bft) 100,00 %
18.07.2016 17:18 25,6 C 63 % 1018,0 hPa 0,0 l/m 8,5 km/h (2 Bft) SW 225 2 min 0,000 mm 1,7 UV-I 526 W/m 18,0 C 25,1 C 14,5 km/h (3 Bft) 100,00 %
18.07.2016 17:20 25,4 C 63 % 1018,0 hPa 0,0 l/m 9,6 km/h (2 Bft) W-SW 256 0 min 0,000 mm 1,2 UV-I 261 W/m 17,8 C 24,7 C 19,3 km/h (3 Bft) 100,00 %
18.07.2016 17:22 25,1 C 62 % 1018,1 hPa 0,0 l/m 11,4 km/h (2 Bft) S 180 0 min 0,000 mm 1,0 UV-I 68 W/m 17,3 C 24,0 C 16,1 km/h (3 Bft) 100,00 %
18.07.2016 17:24 24,8 C 63 % 1018,0 hPa 0,0 l/m 12,3 km/h (3 Bft) SW 225 0 min 0,000 mm 0,9 UV-I 62 W/m 17,3 C 23,5 C 17,7 km/h (3 Bft) 100,00 %
18.07.2016 17:26 24,6 C 64 % 1018,0 hPa 0,0 l/m 12,0 km/h (2 Bft) S-SW 209 0 min 0,000 mm 0,9 UV-I 91 W/m 17,3 C 23,3 C 20,9 km/h (4 Bft) 100,00 %
18.07.2016 17:28 24,4 C 65 % 1018,0 hPa 0,0 l/m 8,6 km/h (2 Bft) SW 223 0 min 0,000 mm 1,1 UV-I 100 W/m 17,4 C 23,8 C 14,5 km/h (3 Bft) 100,00 %
18.07.2016 17:30 24,3 C 64 % 1018,0 hPa 0,0 l/m 12,2 km/h (2 Bft) S-SW 198 0 min 0,000 mm 0,9 UV-I 104 W/m 17,0 C 22,9 C 19,3 km/h (3 Bft) 100,00 %
18.07.2016 17:32 24,2 C 64 % 1018,0 hPa 0,0 l/m 10,9 km/h (2 Bft) SW 217 0 min 0,000 mm 1,0 UV-I 140 W/m 16,9 C 23,1 C 16,1 km/h (3 Bft) 100,00 %
18.07.2016 17:34 24,1 C 65 % 1018,0 hPa 0,0 l/m 11,4 km/h (2 Bft) S 191 0 min 0,000 mm 1,0 UV-I 163 W/m 17,1 C 22,9 C 17,7 km/h (3 Bft) 97,87 %
18.07.2016 17:36 24,1 C 66 % 1018,0 hPa 0,0 l/m 10,6 km/h (2 Bft) SW 235 0 min 0,000 mm 0,9 UV-I 138 W/m 17,3 C 23,0 C 14,5 km/h (3 Bft) 100,00 %
18.07.2016 17:38 24,0 C 66 % 1018,0 hPa 0,0 l/m 10,1 km/h (2 Bft) SW 223 0 min 0,000 mm 0,9 UV-I 142 W/m 17,2 C 23,0 C 16,1 km/h (3 Bft) 100,00 %
18.07.2016 17:40 24,0 C 67 % 1018,0 hPa 0,0 l/m 10,3 km/h (2 Bft) SW 219 0 min 0,000 mm 1,0 UV-I 167 W/m 17,5 C 23,0 C 16,1 km/h (3 Bft) 100,00 %
18.07.2016 17:42 24,1 C 66 % 1018,0 hPa 0,0 l/m 10,8 km/h (2 Bft) S-SO 165 2 min 0,000 mm 1,4 UV-I 362 W/m 17,3 C 23,0 C 16,1 km/h (3 Bft) 100,00 %
18.07.2016 17:44 24,3 C 67 % 1018,0 hPa 0,0 l/m 11,1 km/h (2 Bft) S-SO 159 2 min 0,000 mm 1,4 UV-I 419 W/m 17,8 C 23,2 C 17,7 km/h (3 Bft) 100,00 %
18.07.2016 17:46 24,4 C 65 % 1017,9 hPa 0,0 l/m 12,2 km/h (2 Bft) W-SW 258 0 min 0,000 mm 1,4 UV-I 245 W/m 17,4 C 23,1 C 16,1 km/h (3 Bft) 95,74 %
18.07.2016 17:48 24,4 C 64 % 1017,9 hPa 0,0 l/m 8,7 km/h (2 Bft) S-SW 196 0 min 0,000 mm 1,4 UV-I 194 W/m 17,1 C 23,8 C 12,9 km/h (3 Bft) 100,00 %
18.07.2016 17:50 24,5 C 64 % 1017,9 hPa 0,0 l/m 10,9 km/h (2 Bft) S-SO 163 2 min 0,000 mm 1,4 UV-I 355 W/m 17,2 C 23,4 C 19,3 km/h (3 Bft) 100,00 %
18.07.2016 17:52 24,6 C 65 % 1017,9 hPa 0,0 l/m 8,3 km/h (2 Bft) SW 225 2 min 0,000 mm 1,3 UV-I 431 W/m 17,6 C 24,1 C 12,9 km/h (3 Bft) 100,00 %
18.07.2016 17:54 24,7 C 64 % 1017,9 hPa 0,0 l/m 6,6 km/h (2 Bft) S 186 2 min 0,000 mm 1,1 UV-I 427 W/m 17,4 C 24,7 C 11,3 km/h (2 Bft) 97,87 %
18.07.2016 17:56 24,6 C 65 % 1017,9 hPa 0,0 l/m 12,1 km/h (2 Bft) S-SW 197 0 min 0,000 mm 0,9 UV-I 246 W/m 17,6 C 23,3 C 17,7 km/h (3 Bft) 100,00 %
18.07.2016 17:58 24,5 C 64 % 1017,9 hPa 0,0 l/m 14,3 km/h (3 Bft) S-SW 194 0 min 0,000 mm 0,9 UV-I 198 W/m 17,2 C 22,8 C 24,1 km/h (4 Bft) 100,00 %
18.07.2016 18:00 24,4 C 65 % 1017,9 hPa 0,0 l/m 12,2 km/h (2 Bft) S 178 2 min 0,000 mm 1,0 UV-I 328 W/m 17,4 C 23,1 C 20,9 km/h (4 Bft) 100,00 %
18.07.2016 18:02 24,5 C 65 % 1017,9 hPa 0,0 l/m 12,4 km/h (3 Bft) SW 217 2 min 0,254 mm 1,1 UV-I 434 W/m 17,5 C 23,1 C 17,7 km/h (3 Bft) 97,87 %
18.07.2016 18:04 24,6 C 65 % 1017,9 hPa 0,0 l/m 11,7 km/h (2 Bft) S 189 2 min 0,000 mm 1,1 UV-I 444 W/m 17,6 C 23,4 C 16,1 km/h (3 Bft) 100,00 %
18.07.2016 18:06 24,7 C 65 % 1017,9 hPa 0,0 l/m 9,5 km/h (2 Bft) SW 225 2 min 0,000 mm 1,0 UV-I 274 W/m 17,7 C 23,9 C 14,5 km/h (3 Bft) 100,00 %
18.07.2016 18:08 24,7 C 66 % 1017,9 hPa 0,0 l/m 13,4 km/h (3 Bft) W-SW 244 0 min 0,000 mm 1,1 UV-I 218 W/m 17,9 C 23,2 C 17,7 km/h (3 Bft) 100,00 %
18.07.2016 18:10 24,8 C 66 % 1017,9 hPa 0,0 l/m 8,6 km/h (2 Bft) S-SW 194 2 min 0,000 mm 1,1 UV-I 400 W/m 18,0 C 24,2 C 16,1 km/h (3 Bft) 100,00 %
18.07.2016 18:12 24,8 C 65 % 1017,9 hPa 0,0 l/m 7,1 km/h (2 Bft) SO 140 2 min 0,000 mm 0,9 UV-I 231 W/m 17,8 C 24,6 C 12,9 km/h (3 Bft) 100,00 %
18.07.2016 18:14 24,6 C 65 % 1017,9 hPa 0,0 l/m 9,7 km/h (2 Bft) SW 215 0 min 0,000 mm 0,8 UV-I 98 W/m 17,6 C 23,8 C 14,5 km/h (3 Bft) 100,00 %
18.07.2016 18:16 24,4 C 66 % 1017,9 hPa 0,0 l/m 11,5 km/h (2 Bft) S-SW 208 0 min 0,000 mm 0,8 UV-I 114 W/m 17,6 C 23,2 C 17,7 km/h (3 Bft) 97,87 %
18.07.2016 18:18 24,3 C 66 % 1017,9 hPa 0,0 l/m 10,3 km/h (2 Bft) S 189 0 min 0,000 mm 0,8 UV-I 139 W/m 17,5 C 23,3 C 17,7 km/h (3 Bft) 100,00 %
18.07.2016 18:20 24,4 C 66 % 1017,9 hPa 0,0 l/m 12,3 km/h (3 Bft) S-SW 211 0 min 0,000 mm 0,8 UV-I 186 W/m 17,6 C 23,0 C 17,7 km/h (3 Bft) 100,00 %
18.07.2016 18:22 24,5 C 68 % 1017,9 hPa 0,0 l/m 8,1 km/h (2 Bft) S-SW 206 2 min 0,000 mm 0,8 UV-I 235 W/m 18,2 C 24,1 C 12,9 km/h (3 Bft) 100,00 %
18.07.2016 18:24 24,5 C 66 % 1018,0 hPa 0,0 l/m 7,9 km/h (2 Bft) SW 236 0 min 0,000 mm 0,8 UV-I 184 W/m 17,7 C 24,1 C 14,5 km/h (3 Bft) 100,00 %
18.07.2016 18:26 24,6 C 67 % 1017,8 hPa 0,0 l/m 12,5 km/h (3 Bft) S 175 0 min 0,000 mm 0,8 UV-I 199 W/m 18,1 C 23,2 C 20,9 km/h (4 Bft) 100,00 %
18.07.2016 18:28 24,7 C 67 % 1017,9 hPa 0,0 l/m 9,8 km/h (2 Bft) S 183 2 min 0,000 mm 0,8 UV-I 346 W/m 18,1 C 23,9 C 14,5 km/h (3 Bft) 93,62 %
18.07.2016 18:30 24,8 C 65 % 1017,9 hPa 0,0 l/m 10,3 km/h (2 Bft) W-SW 238 2 min 0,000 mm 0,8 UV-I 322 W/m 17,8 C 23,9 C 17,7 km/h (3 Bft) 95,74 %
18.07.2016 18:32 24,9 C 64 % 1017,9 hPa 0,0 l/m 9,2 km/h (2 Bft) S-SW 195 2 min 0,000 mm 0,7 UV-I 323 W/m 17,6 C 24,2 C 17,7 km/h (3 Bft) 98,00 %
18.07.2016 18:34 24,9 C 65 % 1017,9 hPa 0,0 l/m 12,6 km/h (3 Bft) SW 234 2 min 0,000 mm 0,6 UV-I 233 W/m 17,9 C 23,6 C 19,3 km/h (3 Bft) 97,87 %
18.07.2016 18:36 24,8 C 65 % 1018,0 hPa 0,0 l/m 9,9 km/h (2 Bft) SW 230 0 min 0,000 mm 0,6 UV-I 108 W/m 17,8 C 24,0 C 17,7 km/h (3 Bft) 93,62 %
18.07.2016 18:38 24,7 C 65 % 1018,0 hPa 0,0 l/m 9,8 km/h (2 Bft) S-SW 194 0 min 0,000 mm 0,6 UV-I 95 W/m 17,7 C 23,9 C 17,7 km/h (3 Bft) 97,37 %
18.07.2016 18:40 24,6 C 65 % 1018,0 hPa 0,0 l/m 8,9 km/h (2 Bft) SW 236 0 min 0,000 mm 0,6 UV-I 101 W/m 17,6 C 24,0 C 17,7 km/h (3 Bft) 95,74 %
18.07.2016 18:42 24,5 C 65 % 1018,0 hPa 0,0 l/m 9,9 km/h (2 Bft) S 188 0 min 0,000 mm 0,5 UV-I 101 W/m 17,5 C 23,6 C 16,1 km/h (3 Bft) 97,87 %
18.07.2016 18:44 24,4 C 66 % 1018,0 hPa 0,0 l/m 6,1 km/h (2 Bft) S 179 0 min 0,000 mm 0,5 UV-I 94 W/m 17,6 C 24,4 C 8,0 km/h (2 Bft) 94,12 %
18.07.2016 18:46 24,4 C 67 % 1018,0 hPa 0,0 l/m 5,2 km/h (1 Bft) S-SW 194 0 min 0,000 mm 0,5 UV-I 119 W/m 17,9 C 24,4 C 9,7 km/h (2 Bft) 95,74 %
18.07.2016 18:48 24,4 C 67 % 1018,0 hPa 0,0 l/m 4,5 km/h (1 Bft) S-SW 207 0 min 0,000 mm 0,5 UV-I 148 W/m 17,9 C 24,4 C 8,0 km/h (2 Bft) 97,87 %
18.07.2016 18:50 24,3 C 68 % 1018,0 hPa 0,0 l/m 5,8 km/h (2 Bft) SW 216 0 min 0,000 mm 0,5 UV-I 106 W/m 18,0 C 24,3 C 9,7 km/h (2 Bft) 97,87 %
18.07.2016 18:52 24,4 C 68 % 1017,9 hPa 0,0 l/m 8,3 km/h (2 Bft) S 182 2 min 0,000 mm 0,5 UV-I 199 W/m 18,1 C 23,9 C 14,5 km/h (3 Bft) 95,74 %
18.07.2016 18:54 24,4 C 68 % 1018,0 hPa 0,0 l/m 5,5 km/h (1 Bft) S-SW 211 2 min 0,000 mm 0,5 UV-I 228 W/m 18,1 C 24,4 C 9,7 km/h (2 Bft) 92,31 %
18.07.2016 18:56 24,5 C 68 % 1018,0 hPa 0,0 l/m 10,4 km/h (2 Bft) S-SW 213 2 min 0,000 mm 0,5 UV-I 202 W/m 18,2 C 23,5 C 17,7 km/h (3 Bft) 98,39 %
18.07.2016 18:58 24,6 C 68 % 1018,0 hPa 0,0 l/m 9,8 km/h (2 Bft) S-SW 213 2 min 0,000 mm 0,3 UV-I 279 W/m 18,3 C 23,8 C 17,7 km/h (3 Bft) 97,87 %
18.07.2016 19:00 24,7 C 68 % 1018,0 hPa 0,0 l/m 9,8 km/h (2 Bft) W-SW 248 2 min 0,000 mm 0,0 UV-I 284 W/m 18,4 C 23,9 C 16,1 km/h (3 Bft) 98,00 %
18.07.2016 19:02 24,8 C 68 % 1017,9 hPa 0,0 l/m 8,0 km/h (2 Bft) W-SW 254 2 min 0,178 mm 0,0 UV-I 289 W/m 18,5 C 24,4 C 12,9 km/h (3 Bft) 100,00 %
18.07.2016 19:04 24,9 C 67 % 1018,0 hPa 0,0 l/m 10,8 km/h (2 Bft) S 182 2 min 0,000 mm 0,0 UV-I 292 W/m 18,3 C 23,9 C 17,7 km/h (3 Bft) 100,00 %
18.07.2016 19:06 24,9 C 67 % 1018,0 hPa 0,0 l/m 10,3 km/h (2 Bft) SW 216 2 min 0,000 mm 0,0 UV-I 232 W/m 18,3 C 24,0 C 16,1 km/h (3 Bft) 97,87 %
18.07.2016 19:08 24,9 C 67 % 1018,0 hPa 0,0 l/m 10,0 km/h (2 Bft) W-SW 240 2 min 0,000 mm 0,0 UV-I 216 W/m 18,3 C 24,1 C 14,5 km/h (3 Bft) 100,00 %
18.07.2016 19:10 24,9 C 66 % 1018,0 hPa 0,0 l/m 10,9 km/h (2 Bft) S-SW 213 2 min 0,000 mm 0,0 UV-I 149 W/m 18,1 C 23,9 C 14,5 km/h (3 Bft) 100,00 %
18.07.2016 19:12 24,9 C 66 % 1018,0 hPa 0,0 l/m 8,9 km/h (2 Bft) SW 230 2 min 0,000 mm 0,0 UV-I 206 W/m 18,1 C 24,3 C 16,1 km/h (3 Bft) 100,00 %
18.07.2016 19:14 24,9 C 66 % 1017,9 hPa 0,0 l/m 9,1 km/h (2 Bft) S-SW 205 2 min 0,000 mm 0,0 UV-I 202 W/m 18,1 C 24,2 C 17,7 km/h (3 Bft) 100,00 %
18.07.2016 19:16 24,9 C 66 % 1017,9 hPa 0,0 l/m 9,7 km/h (2 Bft) W-SW 240 2 min 0,000 mm 0,0 UV-I 175 W/m 18,1 C 24,1 C 17,7 km/h (3 Bft) 95,74 %
18.07.2016 19:18 24,8 C 66 % 1017,9 hPa 0,0 l/m 9,5 km/h (2 Bft) SW 228 0 min 0,000 mm 0,0 UV-I 84 W/m 18,0 C 24,0 C 14,5 km/h (3 Bft) 97,87 %
18.07.2016 19:20 24,6 C 67 % 1017,9 hPa 0,0 l/m 10,3 km/h (2 Bft) W-SW 246 0 min 0,000 mm 0,0 UV-I 108 W/m 18,1 C 23,7 C 17,7 km/h (3 Bft) 95,74 %
18.07.2016 19:22 24,5 C 67 % 1017,9 hPa 0,0 l/m 9,8 km/h (2 Bft) SW 227 0 min 0,000 mm 0,0 UV-I 70 W/m 18,0 C 23,7 C 14,5 km/h (3 Bft) 95,74 %
18.07.2016 19:24 24,3 C 67 % 1017,9 hPa 0,0 l/m 7,0 km/h (2 Bft) W-SW 248 0 min 0,000 mm 0,0 UV-I 40 W/m 17,8 C 24,1 C 14,5 km/h (3 Bft) 100,00 %
18.07.2016 19:26 24,2 C 68 % 1017,9 hPa 0,0 l/m 9,2 km/h (2 Bft) SW 225 0 min 0,000 mm 0,0 UV-I 35 W/m 17,9 C 23,5 C 14,5 km/h (3 Bft) 100,00 %
18.07.2016 19:28 24,1 C 68 % 1017,9 hPa 0,0 l/m 6,7 km/h (2 Bft) W-SW 240 0 min 0,000 mm 0,0 UV-I 34 W/m 17,8 C 24,0 C 11,3 km/h (2 Bft) 100,00 %
18.07.2016 19:30 23,9 C 68 % 1017,9 hPa 0,0 l/m 7,5 km/h (2 Bft) SW 218 0 min 0,000 mm 0,0 UV-I 34 W/m 17,6 C 23,6 C 14,5 km/h (3 Bft) 100,00 %
18.07.2016 19:32 23,8 C 69 % 1017,9 hPa 0,0 l/m 8,1 km/h (2 Bft) W-SW 243 0 min 0,000 mm 0,0 UV-I 34 W/m 17,8 C 23,3 C 14,5 km/h (3 Bft) 100,00 %
18.07.2016 19:34 23,7 C 69 % 1017,9 hPa 0,0 l/m 9,1 km/h (2 Bft) SW 218 0 min 0,000 mm 0,0 UV-I 37 W/m 17,7 C 22,9 C 14,5 km/h (3 Bft) 100,00 %
18.07.2016 19:36 23,6 C 70 % 1017,9 hPa 0,0 l/m 9,1 km/h (2 Bft) W-SW 244 0 min 0,000 mm 0,0 UV-I 44 W/m 17,8 C 22,8 C 14,5 km/h (3 Bft) 97,87 %
18.07.2016 19:38 23,5 C 70 % 1018,0 hPa 0,0 l/m 7,0 km/h (2 Bft) S-SW 205 0 min 0,000 mm 0,0 UV-I 52 W/m 17,7 C 23,3 C 11,3 km/h (2 Bft) 100,00 %
18.07.2016 19:40 23,4 C 70 % 1018,0 hPa 0,0 l/m 9,4 km/h (2 Bft) S 184 0 min 0,000 mm 0,0 UV-I 58 W/m 17,6 C 22,5 C 14,5 km/h (3 Bft) 100,00 %
18.07.2016 19:42 23,3 C 70 % 1018,0 hPa 0,0 l/m 8,8 km/h (2 Bft) SW 223 0 min 0,000 mm 0,0 UV-I 67 W/m 17,5 C 22,6 C 12,9 km/h (3 Bft) 100,00 %
18.07.2016 19:44 23,3 C 71 % 1018,0 hPa 0,0 l/m 6,2 km/h (2 Bft) SW 215 0 min 0,000 mm 0,0 UV-I 81 W/m 17,7 C 23,3 C 11,3 km/h (2 Bft) 100,00 %
18.07.2016 19:46 23,2 C 71 % 1018,0 hPa 0,0 l/m 7,5 km/h (2 Bft) S-SW 194 0 min 0,000 mm 0,0 UV-I 79 W/m 17,6 C 22,9 C 12,9 km/h (3 Bft) 100,00 %
18.07.2016 19:48 23,2 C 72 % 1018,1 hPa 0,0 l/m 7,7 km/h (2 Bft) SW 236 2 min 0,000 mm 0,0 UV-I 91 W/m 17,9 C 22,8 C 9,7 km/h (2 Bft) 100,00 %
18.07.2016 19:50 23,1 C 72 % 1018,0 hPa 0,0 l/m 8,0 km/h (2 Bft) S-SW 206 2 min 0,000 mm 0,0 UV-I 86 W/m 17,8 C 22,6 C 12,9 km/h (3 Bft) 97,87 %
18.07.2016 19:52 23,1 C 72 % 1018,0 hPa 0,0 l/m 7,8 km/h (2 Bft) SW 227 0 min 0,000 mm 0,0 UV-I 77 W/m 17,8 C 22,7 C 12,9 km/h (3 Bft) 100,00 %
18.07.2016 19:54 23,1 C 73 % 1018,1 hPa 0,0 l/m 9,4 km/h (2 Bft) SW 221 0 min 0,000 mm 0,0 UV-I 74 W/m 18,0 C 22,2 C 12,9 km/h (3 Bft) 97,87 %
18.07.2016 19:56 23,0 C 73 % 1018,1 hPa 0,0 l/m 7,8 km/h (2 Bft) SW 234 0 min 0,000 mm 0,0 UV-I 68 W/m 17,9 C 22,6 C 11,3 km/h (2 Bft) 100,00 %
18.07.2016 19:58 22,9 C 73 % 1018,2 hPa 0,0 l/m 8,6 km/h (2 Bft) SW 214 0 min 0,000 mm 0,0 UV-I 65 W/m 17,8 C 22,2 C 14,5 km/h (3 Bft) 100,00 %
18.07.2016 20:00 22,8 C 73 % 1018,1 hPa 0,0 l/m 8,9 km/h (2 Bft) S-SW 199 0 min 0,000 mm 0,0 UV-I 62 W/m 17,7 C 22,0 C 14,5 km/h (3 Bft) 100,00 %
18.07.2016 20:02 22,8 C 72 % 1018,2 hPa 0,0 l/m 9,4 km/h (2 Bft) S-SW 211 0 min 0,102 mm 0,0 UV-I 56 W/m 17,5 C 21,9 C 16,1 km/h (3 Bft) 97,87 %
18.07.2016 20:04 22,7 C 73 % 1018,2 hPa 0,0 l/m 12,1 km/h (2 Bft) SW 223 0 min 0,000 mm 0,0 UV-I 53 W/m 17,6 C 21,1 C 17,7 km/h (3 Bft) 100,00 %
18.07.2016 20:06 22,6 C 73 % 1018,2 hPa 0,0 l/m 11,0 km/h (2 Bft) S 186 0 min 0,000 mm 0,0 UV-I 43 W/m 17,5 C 21,3 C 16,1 km/h (3 Bft) 100,00 %
18.07.2016 20:08 22,5 C 73 % 1018,2 hPa 0,0 l/m 11,3 km/h (2 Bft) SW 234 0 min 0,000 mm 0,0 UV-I 32 W/m 17,4 C 21,1 C 16,1 km/h (3 Bft) 97,87 %
18.07.2016 20:10 22,4 C 73 % 1018,2 hPa 0,0 l/m 9,3 km/h (2 Bft) SW 229 0 min 0,000 mm 0,0 UV-I 27 W/m 17,3 C 21,5 C 16,1 km/h (3 Bft) 95,74 %
18.07.2016 20:12 22,3 C 74 % 1018,1 hPa 0,0 l/m 9,5 km/h (2 Bft) SW 235 0 min 0,000 mm 0,0 UV-I 30 W/m 17,4 C 21,3 C 16,1 km/h (3 Bft) 100,00 %
18.07.2016 20:14 22,2 C 75 % 1018,2 hPa 0,0 l/m 11,1 km/h (2 Bft) SW 229 0 min 0,000 mm 0,0 UV-I 28 W/m 17,5 C 20,8 C 14,5 km/h (3 Bft) 97,87 %
18.07.2016 20:16 22,1 C 75 % 1018,2 hPa 0,0 l/m 9,7 km/h (2 Bft) SW 219 0 min 0,000 mm 0,0 UV-I 25 W/m 17,5 C 21,0 C 14,5 km/h (3 Bft) 100,00 %
18.07.2016 20:18 22,0 C 75 % 1018,3 hPa 0,0 l/m 7,5 km/h (2 Bft) SW 233 0 min 0,000 mm 0,0 UV-I 25 W/m 17,4 C 21,6 C 11,3 km/h (2 Bft) 95,74 %
18.07.2016 20:20 21,9 C 75 % 1018,2 hPa 0,0 l/m 8,8 km/h (2 Bft) W-SW 252 0 min 0,000 mm 0,0 UV-I 25 W/m 17,3 C 21,1 C 14,5 km/h (3 Bft) 100,00 %
18.07.2016 20:22 21,8 C 76 % 1018,3 hPa 0,0 l/m 8,8 km/h (2 Bft) SW 221 0 min 0,000 mm 0,0 UV-I 25 W/m 17,4 C 21,0 C 12,9 km/h (3 Bft) 100,00 %
18.07.2016 20:24 21,8 C 76 % 1018,2 hPa 0,0 l/m 10,3 km/h (2 Bft) W 267 0 min 0,000 mm 0,0 UV-I 25 W/m 17,4 C 20,5 C 16,1 km/h (3 Bft) 100,00 %
18.07.2016 20:26 21,7 C 76 % 1018,2 hPa 0,0 l/m 9,4 km/h (2 Bft) SW 234 0 min 0,000 mm 0,0 UV-I 25 W/m 17,3 C 20,7 C 14,5 km/h (3 Bft) 97,87 %
18.07.2016 20:28 21,6 C 76 % 1018,2 hPa 0,0 l/m 8,9 km/h (2 Bft) W-SW 250 0 min 0,000 mm 0,0 UV-I 25 W/m 17,2 C 20,7 C 14,5 km/h (3 Bft) 95,74 %
18.07.2016 20:30 21,6 C 77 % 1018,3 hPa 0,0 l/m 9,3 km/h (2 Bft) SW 233 0 min 0,000 mm 0,0 UV-I 25 W/m 17,4 C 20,6 C 14,5 km/h (3 Bft) 100,00 %
18.07.2016 20:32 21,5 C 77 % 1018,2 hPa 0,0 l/m 8,5 km/h (2 Bft) SW 225 0 min 0,000 mm 0,0 UV-I 23 W/m 17,3 C 20,8 C 16,1 km/h (3 Bft) 93,62 %
18.07.2016 20:34 21,4 C 77 % 1018,3 hPa 0,0 l/m 10,0 km/h (2 Bft) SW 220 0 min 0,000 mm 0,0 UV-I 22 W/m 17,2 C 20,2 C 14,5 km/h (3 Bft) 95,74 %
18.07.2016 20:36 21,4 C 77 % 1018,3 hPa 0,0 l/m 10,6 km/h (2 Bft) SW 232 0 min 0,000 mm 0,0 UV-I 19 W/m 17,2 C 20,0 C 14,5 km/h (3 Bft) 95,74 %
18.07.2016 20:38 21,3 C 78 % 1018,3 hPa 0,0 l/m 11,4 km/h (2 Bft) SW 216 2 min 0,000 mm 0,0 UV-I 17 W/m 17,3 C 19,7 C 16,1 km/h (3 Bft) 97,87 %
18.07.2016 20:40 21,3 C 78 % 1018,3 hPa 0,0 l/m 10,2 km/h (2 Bft) SW 224 2 min 0,000 mm 0,0 UV-I 16 W/m 17,3 C 20,0 C 17,7 km/h (3 Bft) 97,87 %
18.07.2016 20:42 21,2 C 78 % 1018,3 hPa 0,0 l/m 9,0 km/h (2 Bft) SW 221 2 min 0,000 mm 0,0 UV-I 13 W/m 17,2 C 20,3 C 11,3 km/h (2 Bft) 96,00 %
18.07.2016 20:44 21,1 C 78 % 1018,3 hPa 0,0 l/m 10,5 km/h (2 Bft) SW 225 2 min 0,000 mm 0,0 UV-I 12 W/m 17,1 C 19,7 C 14,5 km/h (3 Bft) 95,74 %
18.07.2016 20:46 21,1 C 79 % 1018,3 hPa 0,0 l/m 9,9 km/h (2 Bft) SW 232 0 min 0,000 mm 0,0 UV-I 11 W/m 17,3 C 19,9 C 14,5 km/h (3 Bft) 95,74 %
18.07.2016 20:48 20,9 C 79 % 1018,3 hPa 0,0 l/m 10,4 km/h (2 Bft) SW 227 0 min 0,000 mm 0,0 UV-I 10 W/m 17,1 C 19,5 C 14,5 km/h (3 Bft) 95,74 %
18.07.2016 20:50 20,8 C 79 % 1018,4 hPa 0,0 l/m 10,2 km/h (2 Bft) W-SW 237 0 min 0,000 mm 0,0 UV-I 9 W/m 17,0 C 19,5 C 14,5 km/h (3 Bft) 95,74 %
18.07.2016 20:52 20,8 C 79 % 1018,4 hPa 0,0 l/m 9,2 km/h (2 Bft) S-SW 205 0 min 0,000 mm 0,0 UV-I 8 W/m 17,0 C 19,8 C 14,5 km/h (3 Bft) 97,87 %
18.07.2016 20:54 20,7 C 79 % 1018,4 hPa 0,0 l/m 8,8 km/h (2 Bft) SW 223 0 min 0,000 mm 0,0 UV-I 7 W/m 16,9 C 19,8 C 11,3 km/h (2 Bft) 95,74 %
18.07.2016 20:56 20,6 C 80 % 1018,4 hPa 0,0 l/m 9,7 km/h (2 Bft) SW 232 0 min 0,000 mm 0,0 UV-I 6 W/m 17,0 C 19,4 C 12,9 km/h (3 Bft) 97,87 %
18.07.2016 20:58 20,6 C 80 % 1018,4 hPa 0,0 l/m 8,3 km/h (2 Bft) SW 233 0 min 0,000 mm 0,0 UV-I 5 W/m 17,0 C 19,9 C 11,3 km/h (2 Bft) 100,00 %
18.07.2016 21:00 20,6 C 80 % 1018,5 hPa 0,0 l/m 6,9 km/h (2 Bft) W-SW 248 0 min 0,000 mm 0,0 UV-I 5 W/m 17,0 C 20,4 C 11,3 km/h (2 Bft) 100,00 %
18.07.2016 21:02 20,5 C 80 % 1018,5 hPa 0,0 l/m 7,1 km/h (2 Bft) S-SW 213 0 min 0,050 mm 0,0 UV-I 2 W/m 16,9 C 20,2 C 11,3 km/h (2 Bft) 94,74 %
18.07.2016 21:04 20,5 C 80 % 1018,5 hPa 0,0 l/m 6,6 km/h (2 Bft) W-SW 257 0 min 0,000 mm 0,0 UV-I 0 W/m 16,9 C 20,4 C 9,7 km/h (2 Bft) 97,87 %
18.07.2016 21:06 20,4 C 80 % 1018,5 hPa 0,0 l/m 7,0 km/h (2 Bft) SW 223 0 min 0,000 mm 0,0 UV-I 0 W/m 16,8 C 20,2 C 11,3 km/h (2 Bft) 100,00 %
18.07.2016 21:08 20,3 C 80 % 1018,6 hPa 0,0 l/m 7,7 km/h (2 Bft) SW 231 0 min 0,000 mm 0,0 UV-I 0 W/m 16,7 C 19,8 C 9,7 km/h (2 Bft) 100,00 %
18.07.2016 21:10 20,3 C 80 % 1018,6 hPa 0,0 l/m 6,3 km/h (2 Bft) SW 229 0 min 0,000 mm 0,0 UV-I 0 W/m 16,7 C 20,3 C 9,7 km/h (2 Bft) 98,00 %
18.07.2016 21:12 20,2 C 81 % 1018,7 hPa 0,0 l/m 6,3 km/h (2 Bft) SW 227 0 min 0,000 mm 0,0 UV-I 0 W/m 16,8 C 20,2 C 8,0 km/h (2 Bft) 100,00 %
18.07.2016 21:14 20,2 C 81 % 1018,7 hPa 0,0 l/m 5,8 km/h (2 Bft) SW 223 0 min 0,000 mm 0,0 UV-I 0 W/m 16,8 C 20,2 C 8,0 km/h (2 Bft) 98,11 %
18.07.2016 21:16 20,1 C 81 % 1018,8 hPa 0,0 l/m 5,3 km/h (1 Bft) SW 217 0 min 0,000 mm 0,0 UV-I 0 W/m 16,7 C 20,1 C 8,0 km/h (2 Bft) 95,74 %
18.07.2016 21:18 20,1 C 81 % 1018,8 hPa 0,0 l/m 6,3 km/h (2 Bft) S-SW 207 0 min 0,000 mm 0,0 UV-I 0 W/m 16,7 C 20,1 C 8,0 km/h (2 Bft) 100,00 %
18.07.2016 21:20 20,0 C 81 % 1018,8 hPa 0,0 l/m 5,9 km/h (2 Bft) S-SW 205 0 min 0,000 mm 0,0 UV-I 0 W/m 16,6 C 20,0 C 8,0 km/h (2 Bft) 97,87 %
18.07.2016 21:22 20,0 C 81 % 1018,9 hPa 0,0 l/m 6,2 km/h (2 Bft) S-SW 203 0 min 0,000 mm 0,0 UV-I 0 W/m 16,6 C 20,0 C 8,0 km/h (2 Bft) 97,14 %
18.07.2016 21:24 19,9 C 82 % 1018,8 hPa 0,0 l/m 7,6 km/h (2 Bft) S-SW 202 0 min 0,000 mm 0,0 UV-I 0 W/m 16,7 C 19,4 C 9,7 km/h (2 Bft) 100,00 %
18.07.2016 21:26 19,9 C 82 % 1018,8 hPa 0,0 l/m 6,5 km/h (2 Bft) S 186 0 min 0,000 mm 0,0 UV-I 0 W/m 16,7 C 19,9 C 8,0 km/h (2 Bft) 100,00 %
18.07.2016 21:28 19,9 C 82 % 1018,9 hPa 0,0 l/m 6,3 km/h (2 Bft) S-SW 196 0 min 0,000 mm 0,0 UV-I 0 W/m 16,7 C 19,9 C 9,7 km/h (2 Bft) 100,00 %
18.07.2016 21:30 19,8 C 82 % 1018,9 hPa 0,0 l/m 6,5 km/h (2 Bft) S-SW 194 0 min 0,000 mm 0,0 UV-I 0 W/m 16,6 C 19,8 C 9,7 km/h (2 Bft) 95,74 %
18.07.2016 21:32 19,8 C 82 % 1018,9 hPa 0,0 l/m 4,2 km/h (1 Bft) S-SW 207 0 min 0,000 mm 0,0 UV-I 0 W/m 16,6 C 19,8 C 6,4 km/h (2 Bft) 100,00 %
18.07.2016 21:34 19,8 C 82 % 1018,9 hPa 0,0 l/m 6,0 km/h (2 Bft) S 186 0 min 0,000 mm 0,0 UV-I 0 W/m 16,6 C 19,8 C 9,7 km/h (2 Bft) 100,00 %
18.07.2016 21:36 19,7 C 82 % 1018,9 hPa 0,0 l/m 6,2 km/h (2 Bft) S-SW 201 0 min 0,000 mm 0,0 UV-I 0 W/m 16,5 C 19,7 C 9,7 km/h (2 Bft) 100,00 %
18.07.2016 21:38 19,7 C 83 % 1018,9 hPa 0,0 l/m 4,6 km/h (1 Bft) S 180 0 min 0,000 mm 0,0 UV-I 0 W/m 16,7 C 19,7 C 6,4 km/h (2 Bft) 100,00 %
18.07.2016 21:40 19,6 C 83 % 1018,9 hPa 0,0 l/m 4,2 km/h (1 Bft) S 178 0 min 0,000 mm 0,0 UV-I 0 W/m 16,6 C 19,6 C 6,4 km/h (2 Bft) 100,00 %
18.07.2016 21:42 19,6 C 83 % 1018,9 hPa 0,0 l/m 4,3 km/h (1 Bft) S 180 0 min 0,000 mm 0,0 UV-I 0 W/m 16,6 C 19,6 C 6,4 km/h (2 Bft) 100,00 %
18.07.2016 21:44 19,5 C 83 % 1019,0 hPa 0,0 l/m 4,5 km/h (1 Bft) S 180 0 min 0,000 mm 0,0 UV-I 0 W/m 16,5 C 19,5 C 4,8 km/h (1 Bft) 98,11 %
18.07.2016 21:46 19,4 C 83 % 1018,9 hPa 0,0 l/m 4,6 km/h (1 Bft) S 180 0 min 0,000 mm 0,0 UV-I 0 W/m 16,4 C 19,4 C 6,4 km/h (2 Bft) 100,00 %
18.07.2016 21:48 19,4 C 83 % 1018,9 hPa 0,0 l/m 3,9 km/h (1 Bft) S 180 0 min 0,000 mm 0,0 UV-I 0 W/m 16,4 C 19,4 C 4,8 km/h (1 Bft) 100,00 %
18.07.2016 21:50 19,4 C 83 % 1018,9 hPa 0,0 l/m 4,6 km/h (1 Bft) S 184 0 min 0,000 mm 0,0 UV-I 0 W/m 16,4 C 19,4 C 6,4 km/h (2 Bft) 98,00 %
18.07.2016 21:52 19,4 C 84 % 1018,9 hPa 0,0 l/m 4,9 km/h (1 Bft) S 180 0 min 0,000 mm 0,0 UV-I 0 W/m 16,6 C 19,4 C 8,0 km/h (2 Bft) 100,00 %
18.07.2016 21:54 19,3 C 84 % 1018,9 hPa 0,0 l/m 4,9 km/h (1 Bft) S 190 0 min 0,000 mm 0,0 UV-I 0 W/m 16,5 C 19,3 C 6,4 km/h (2 Bft) 97,87 %
18.07.2016 21:56 19,3 C 84 % 1018,9 hPa 0,0 l/m 4,5 km/h (1 Bft) S 181 0 min 0,000 mm 0,0 UV-I 0 W/m 16,5 C 19,3 C 6,4 km/h (2 Bft) 100,00 %
18.07.2016 21:58 19,3 C 84 % 1018,9 hPa 0,0 l/m 6,2 km/h (2 Bft) S 182 0 min 0,000 mm 0,0 UV-I 0 W/m 16,5 C 19,3 C 8,0 km/h (2 Bft) 100,00 %
18.07.2016 22:00 19,3 C 84 % 1018,9 hPa 0,0 l/m 5,4 km/h (1 Bft) S 187 0 min 0,000 mm 0,0 UV-I 0 W/m 16,5 C 19,3 C 8,0 km/h (2 Bft) 95,92 %
18.07.2016 22:02 19,2 C 84 % 1018,9 hPa 0,0 l/m 6,8 km/h (2 Bft) S-SW 197 0 min 0,026 mm 0,0 UV-I 0 W/m 16,4 C 19,0 C 9,7 km/h (2 Bft) 100,00 %
18.07.2016 22:04 19,2 C 84 % 1018,9 hPa 0,0 l/m 6,2 km/h (2 Bft) S 187 0 min 0,000 mm 0,0 UV-I 0 W/m 16,4 C 19,2 C 8,0 km/h (2 Bft) 93,62 %
18.07.2016 22:06 19,2 C 84 % 1018,9 hPa 0,0 l/m 5,8 km/h (2 Bft) S 186 0 min 0,000 mm 0,0 UV-I 0 W/m 16,4 C 19,2 C 9,7 km/h (2 Bft) 97,87 %
18.07.2016 22:08 19,2 C 85 % 1018,9 hPa 0,0 l/m 6,0 km/h (2 Bft) S-SW 194 0 min 0,000 mm 0,0 UV-I 0 W/m 16,6 C 19,2 C 6,4 km/h (2 Bft) 100,00 %
18.07.2016 22:10 19,1 C 85 % 1018,9 hPa 0,0 l/m 5,3 km/h (1 Bft) S 189 0 min 0,000 mm 0,0 UV-I 0 W/m 16,5 C 19,1 C 6,4 km/h (2 Bft) 100,00 %
18.07.2016 22:12 19,1 C 85 % 1018,9 hPa 0,0 l/m 5,1 km/h (1 Bft) S-SW 200 0 min 0,000 mm 0,0 UV-I 0 W/m 16,5 C 19,1 C 6,4 km/h (2 Bft) 100,00 %
18.07.2016 22:14 19,1 C 85 % 1018,9 hPa 0,0 l/m 5,7 km/h (1 Bft) S 176 0 min 0,000 mm 0,0 UV-I 0 W/m 16,5 C 19,1 C 8,0 km/h (2 Bft) 100,00 %
18.07.2016 22:16 19,0 C 85 % 1018,9 hPa 0,0 l/m 4,8 km/h (1 Bft) S 175 0 min 0,000 mm 0,0 UV-I 0 W/m 16,4 C 19,0 C 6,4 km/h (2 Bft) 100,00 %
18.07.2016 22:18 18,9 C 85 % 1019,0 hPa 0,0 l/m 4,8 km/h (1 Bft) S 181 0 min 0,000 mm 0,0 UV-I 0 W/m 16,3 C 18,9 C 6,4 km/h (2 Bft) 100,00 %
18.07.2016 22:20 18,9 C 86 % 1019,0 hPa 0,0 l/m 5,2 km/h (1 Bft) S 172 0 min 0,000 mm 0,0 UV-I 0 W/m 16,5 C 18,9 C 8,0 km/h (2 Bft) 97,87 %
18.07.2016 22:22 18,8 C 86 % 1019,0 hPa 0,0 l/m 6,0 km/h (2 Bft) S 186 0 min 0,000 mm 0,0 UV-I 0 W/m 16,4 C 18,8 C 8,0 km/h (2 Bft) 100,00 %
18.07.2016 22:24 18,8 C 86 % 1019,0 hPa 0,0 l/m 6,5 km/h (2 Bft) S-SW 196 0 min 0,000 mm 0,0 UV-I 0 W/m 16,4 C 18,8 C 11,3 km/h (2 Bft) 98,00 %
18.07.2016 22:26 18,8 C 86 % 1019,0 hPa 0,0 l/m 6,2 km/h (2 Bft) S 173 0 min 0,000 mm 0,0 UV-I 0 W/m 16,4 C 18,8 C 11,3 km/h (2 Bft) 96,00 %
18.07.2016 22:28 18,8 C 86 % 1019,0 hPa 0,0 l/m 6,8 km/h (2 Bft) S 178 0 min 0,000 mm 0,0 UV-I 0 W/m 16,4 C 18,6 C 11,3 km/h (2 Bft) 97,87 %
18.07.2016 22:30 18,8 C 86 % 1019,0 hPa 0,0 l/m 7,1 km/h (2 Bft) S 185 0 min 0,000 mm 0,0 UV-I 0 W/m 16,4 C 18,5 C 9,7 km/h (2 Bft) 97,87 %
18.07.2016 22:32 18,8 C 86 % 1019,0 hPa 0,0 l/m 6,4 km/h (2 Bft) S-SW 202 0 min 0,000 mm 0,0 UV-I 0 W/m 16,4 C 18,8 C 8,0 km/h (2 Bft) 96,00 %
18.07.2016 22:34 18,8 C 86 % 1019,0 hPa 0,0 l/m 6,9 km/h (2 Bft) S-SW 198 0 min 0,000 mm 0,0 UV-I 0 W/m 16,4 C 18,6 C 9,7 km/h (2 Bft) 97,87 %
18.07.2016 22:36 18,8 C 86 % 1019,1 hPa 0,0 l/m 6,0 km/h (2 Bft) S 182 0 min 0,000 mm 0,0 UV-I 0 W/m 16,4 C 18,8 C 8,0 km/h (2 Bft) 97,87 %
18.07.2016 22:38 18,8 C 86 % 1019,0 hPa 0,0 l/m 6,4 km/h (2 Bft) S 188 0 min 0,000 mm 0,0 UV-I 0 W/m 16,4 C 18,8 C 9,7 km/h (2 Bft) 97,37 %
18.07.2016 22:40 18,8 C 86 % 1019,0 hPa 0,0 l/m 6,2 km/h (2 Bft) S 187 0 min 0,000 mm 0,0 UV-I 0 W/m 16,4 C 18,8 C 8,0 km/h (2 Bft) 97,87 %
18.07.2016 22:42 18,7 C 86 % 1019,0 hPa 0,0 l/m 6,9 km/h (2 Bft) S-SW 196 0 min 0,000 mm 0,0 UV-I 0 W/m 16,3 C 18,5 C 8,0 km/h (2 Bft) 98,11 %
18.07.2016 22:44 18,7 C 87 % 1019,1 hPa 0,0 l/m 5,7 km/h (1 Bft) SW 214 0 min 0,000 mm 0,0 UV-I 0 W/m 16,5 C 18,7 C 8,0 km/h (2 Bft) 97,87 %
18.07.2016 22:46 18,7 C 87 % 1019,1 hPa 0,0 l/m 5,6 km/h (1 Bft) S 182 0 min 0,000 mm 0,0 UV-I 0 W/m 16,5 C 18,7 C 8,0 km/h (2 Bft) 97,87 %
18.07.2016 22:48 18,7 C 87 % 1019,1 hPa 0,0 l/m 5,1 km/h (1 Bft) S-SW 200 0 min 0,000 mm 0,0 UV-I 0 W/m 16,5 C 18,7 C 8,0 km/h (2 Bft) 96,00 %
18.07.2016 22:50 18,6 C 87 % 1019,1 hPa 0,0 l/m 5,6 km/h (1 Bft) S-SW 204 0 min 0,000 mm 0,0 UV-I 0 W/m 16,4 C 18,6 C 8,0 km/h (2 Bft) 95,74 %
18.07.2016 22:52 18,6 C 87 % 1019,1 hPa 0,0 l/m 5,7 km/h (1 Bft) S-SW 198 0 min 0,000 mm 0,0 UV-I 0 W/m 16,4 C 18,6 C 8,0 km/h (2 Bft) 97,87 %
18.07.2016 22:54 18,5 C 87 % 1019,1 hPa 0,0 l/m 6,1 km/h (2 Bft) S-SW 203 0 min 0,000 mm 0,0 UV-I 0 W/m 16,3 C 18,5 C 8,0 km/h (2 Bft) 97,87 %
18.07.2016 22:56 18,4 C 88 % 1019,1 hPa 0,0 l/m 6,1 km/h (2 Bft) S 182 0 min 0,000 mm 0,0 UV-I 0 W/m 16,4 C 18,4 C 8,0 km/h (2 Bft) 100,00 %
18.07.2016 22:58 18,4 C 88 % 1019,1 hPa 0,0 l/m 5,2 km/h (1 Bft) S-SW 196 0 min 0,000 mm 0,0 UV-I 0 W/m 16,4 C 18,4 C 8,0 km/h (2 Bft) 100,00 %
18.07.2016 23:00 18,3 C 88 % 1019,1 hPa 0,0 l/m 4,6 km/h (1 Bft) S-SW 196 0 min 0,000 mm 0,0 UV-I 0 W/m 16,3 C 18,3 C 6,4 km/h (2 Bft) 96,00 %
18.07.2016 23:02 18,3 C 88 % 1019,1 hPa 0,0 l/m 4,8 km/h (1 Bft) S 175 0 min 0,025 mm 0,0 UV-I 0 W/m 16,3 C 18,3 C 9,7 km/h (2 Bft) 100,00 %
18.07.2016 23:04 18,3 C 88 % 1019,1 hPa 0,0 l/m 4,7 km/h (1 Bft) S-SW 207 0 min 0,000 mm 0,0 UV-I 0 W/m 16,3 C 18,3 C 8,0 km/h (2 Bft) 97,87 %
18.07.2016 23:06 18,3 C 88 % 1019,1 hPa 0,0 l/m 6,5 km/h (2 Bft) S 184 0 min 0,000 mm 0,0 UV-I 0 W/m 16,3 C 18,3 C 8,0 km/h (2 Bft) 97,87 %
18.07.2016 23:08 18,2 C 89 % 1019,1 hPa 0,0 l/m 5,6 km/h (1 Bft) S-SW 206 0 min 0,000 mm 0,0 UV-I 0 W/m 16,4 C 18,2 C 9,7 km/h (2 Bft) 97,87 %
18.07.2016 23:10 18,2 C 89 % 1019,1 hPa 0,0 l/m 5,6 km/h (1 Bft) S 184 0 min 0,000 mm 0,0 UV-I 0 W/m 16,4 C 18,2 C 8,0 km/h (2 Bft) 97,87 %
18.07.2016 23:12 18,2 C 89 % 1019,2 hPa 0,0 l/m 6,2 km/h (2 Bft) S-SW 203 0 min 0,000 mm 0,0 UV-I 0 W/m 16,4 C 18,2 C 9,7 km/h (2 Bft) 100,00 %
18.07.2016 23:14 18,2 C 89 % 1019,2 hPa 0,0 l/m 6,4 km/h (2 Bft) S-SW 198 0 min 0,000 mm 0,0 UV-I 0 W/m 16,4 C 18,2 C 9,7 km/h (2 Bft) 100,00 %
18.07.2016 23:16 18,2 C 89 % 1019,2 hPa 0,0 l/m 6,0 km/h (2 Bft) S 188 0 min 0,000 mm 0,0 UV-I 0 W/m 16,4 C 18,2 C 9,7 km/h (2 Bft) 100,00 %
18.07.2016 23:18 18,2 C 89 % 1019,2 hPa 0,0 l/m 7,1 km/h (2 Bft) S-SW 200 0 min 0,000 mm 0,0 UV-I 0 W/m 16,4 C 17,9 C 9,7 km/h (2 Bft) 100,00 %
18.07.2016 23:20 18,2 C 89 % 1019,3 hPa 0,0 l/m 5,6 km/h (1 Bft) S-SW 196 0 min 0,000 mm 0,0 UV-I 0 W/m 16,4 C 18,2 C 8,0 km/h (2 Bft) 97,87 %
18.07.2016 23:22 18,2 C 89 % 1019,3 hPa 0,0 l/m 4,6 km/h (1 Bft) S 190 0 min 0,000 mm 0,0 UV-I 0 W/m 16,4 C 18,2 C 8,0 km/h (2 Bft) 100,00 %
18.07.2016 23:24 18,2 C 89 % 1019,3 hPa 0,0 l/m 5,1 km/h (1 Bft) S 185 0 min 0,000 mm 0,0 UV-I 0 W/m 16,4 C 18,2 C 9,7 km/h (2 Bft) 97,87 %
18.07.2016 23:26 18,2 C 89 % 1019,4 hPa 0,0 l/m 3,1 km/h (1 Bft) S 186 0 min 0,000 mm 0,0 UV-I 0 W/m 16,4 C 18,2 C 6,4 km/h (2 Bft) 97,87 %
18.07.2016 23:28 18,2 C 89 % 1019,3 hPa 0,0 l/m 4,4 km/h (1 Bft) S-SW 205 0 min 0,000 mm 0,0 UV-I 0 W/m 16,4 C 18,2 C 8,0 km/h (2 Bft) 100,00 %
18.07.2016 23:30 18,2 C 89 % 1019,4 hPa 0,0 l/m 3,2 km/h (1 Bft) S-SW 208 0 min 0,000 mm 0,0 UV-I 0 W/m 16,4 C 18,2 C 6,4 km/h (2 Bft) 97,87 %
18.07.2016 23:32 18,2 C 89 % 1019,4 hPa 0,0 l/m 4,1 km/h (1 Bft) S 180 0 min 0,000 mm 0,0 UV-I 0 W/m 16,4 C 18,2 C 8,0 km/h (2 Bft) 100,00 %
18.07.2016 23:34 18,2 C 89 % 1019,4 hPa 0,0 l/m 4,6 km/h (1 Bft) S 169 0 min 0,000 mm 0,0 UV-I 0 W/m 16,4 C 18,2 C 9,7 km/h (2 Bft) 100,00 %
18.07.2016 23:36 18,2 C 89 % 1019,4 hPa 0,0 l/m 3,2 km/h (1 Bft) S 175 0 min 0,000 mm 0,0 UV-I 0 W/m 16,4 C 18,2 C 6,4 km/h (2 Bft) 100,00 %
18.07.2016 23:38 18,2 C 89 % 1019,4 hPa 0,0 l/m 2,7 km/h (1 Bft) S 173 0 min 0,000 mm 0,0 UV-I 0 W/m 16,4 C 18,2 C 4,8 km/h (1 Bft) 100,00 %
18.07.2016 23:40 18,2 C 89 % 1019,5 hPa 0,0 l/m 2,9 km/h (1 Bft) S 182 0 min 0,000 mm 0,0 UV-I 0 W/m 16,4 C 18,2 C 6,4 km/h (2 Bft) 100,00 %
18.07.2016 23:42 18,2 C 89 % 1019,5 hPa 0,0 l/m 2,7 km/h (1 Bft) S 186 0 min 0,000 mm 0,0 UV-I 0 W/m 16,4 C 18,2 C 4,8 km/h (1 Bft) 100,00 %
18.07.2016 23:44 18,2 C 89 % 1019,5 hPa 0,0 l/m 3,9 km/h (1 Bft) S 178 0 min 0,000 mm 0,0 UV-I 0 W/m 16,4 C 18,2 C 6,4 km/h (2 Bft) 100,00 %
18.07.2016 23:46 18,1 C 89 % 1019,5 hPa 0,0 l/m 3,5 km/h (1 Bft) S 178 0 min 0,000 mm 0,0 UV-I 0 W/m 16,3 C 18,1 C 6,4 km/h (2 Bft) 100,00 %
18.07.2016 23:48 18,1 C 89 % 1019,5 hPa 0,0 l/m 4,7 km/h (1 Bft) S 173 0 min 0,000 mm 0,0 UV-I 0 W/m 16,3 C 18,1 C 6,4 km/h (2 Bft) 100,00 %
18.07.2016 23:50 18,1 C 90 % 1019,6 hPa 0,0 l/m 5,6 km/h (1 Bft) S 182 0 min 0,000 mm 0,0 UV-I 0 W/m 16,4 C 18,1 C 8,0 km/h (2 Bft) 100,00 %
18.07.2016 23:52 18,1 C 90 % 1019,5 hPa 0,0 l/m 6,7 km/h (2 Bft) S 174 0 min 0,000 mm 0,0 UV-I 0 W/m 16,4 C 18,0 C 9,7 km/h (2 Bft) 100,00 %
18.07.2016 23:54 18,1 C 90 % 1019,6 hPa 0,0 l/m 5,2 km/h (1 Bft) S 181 0 min 0,000 mm 0,0 UV-I 0 W/m 16,4 C 18,1 C 8,0 km/h (2 Bft) 100,00 %
18.07.2016 23:56 18,1 C 90 % 1019,6 hPa 0,0 l/m 3,6 km/h (1 Bft) S 181 0 min 0,000 mm 0,0 UV-I 0 W/m 16,4 C 18,1 C 4,8 km/h (1 Bft) 100,00 %
18.07.2016 23:58 18,1 C 90 % 1019,6 hPa 0,0 l/m 4,8 km/h (1 Bft) S-SW 198 0 min 0,000 mm 0,0 UV-I 0 W/m 16,4 C 18,1 C 6,4 km/h (2 Bft) 100,00 %
_ Min-Zeit 05:22 15:10 18:26 - 00:20 - - - - - - 05:22 06:28 00:20 08:48
Minimum _ 15,2 C 54 % 1017,8 hPa - 0,0 km/h (0 Bft) - - - - - - 14,7 C 14,6 C 0,0 km/h (0 Bft) 92,11 %
_ Max-Zeit 15:24 05:42 00:00 00:32 15:16 - - 09:34 14:02 13:16 13:40 12:22 15:22 10:20 00:00
Maximum _ 26,7 C 98 % 1020,4 hPa 1,2 l/m 18,7 km/h
W (3 Bft)
- - 2 min 0,534 mm 7,7 UV-I 1051 W/m 19,6 C 26,6 C 27,4 km/h
SW (4 Bft)
100,00 %
Durchschnitt _ 20,0 C 82 % 1019,3 hPa #4,6 l/m 5,9 km/h (2 Bft) SW - #6:12 h #3,886 mm 3,4 UV-I 364 W/m 16,6 C 19,6 C 10,0 km/h (2 Bft) 98,35 %